GFSGBSN_prec_precacc_153.txt.gz
Total_Precipitation_Accumulation
0.98 0.77 0.59 0.37 0.21 0.15 0.09 0.09 0.07 0.05 0.04 0.04 0.04 0.03 0.03 0.04 0.03 0.04 0.03 0.03 0.02 0.02 0.02 0.01 0.01 0.02 0.00 0.00 0.00 0.00 0.00 0.00 0.00 0.00 0.00 0.00 0.00 0.00 0.00 0.00 0.00 0.00 0.00 0.00 0.00 0.00 0.03
1.76 1.50 1.29 1.05 0.82 0.51 0.33 0.20 0.12 0.08 0.08 0.14 0.17 0.16 0.14 0.12 0.10 0.08 0.05 0.03 0.02 0.03 0.02 0.02 0.01 0.02 0.00 0.00 0.00 0.00 0.00 0.00 0.00 0.00 0.00 0.00 0.00 0.00 0.00 0.00 0.00 0.00 0.00 0.00 0.00 0.00 0.01
2.14 2.01 1.83 1.58 1.34 1.23 1.19 0.93 0.69 0.61 0.69 0.73 0.55 0.43 0.31 0.21 0.15 0.12 0.08 0.04 0.03 0.04 0.03 0.02 0.02 0.02 0.00 0.00 0.00 0.00 0.00 0.00 0.00 0.00 0.00 0.00 0.00 0.00 0.00 0.00 0.00 0.00 0.00 0.00 0.00 0.00 0.02
1.64 1.93 2.01 1.95 1.70 1.48 1.27 1.23 1.23 1.24 1.23 1.13 0.96 0.68 0.44 0.29 0.21 0.18 0.16 0.11 0.08 0.07 0.05 0.04 0.02 0.02 0.00 0.00 0.00 0.00 0.00 0.00 0.00 0.00 0.00 0.00 0.00 0.00 0.00 0.00 0.00 0.00 0.00 0.01 0.01 0.00 0.01
0.92 1.09 1.39 1.60 1.67 1.59 1.45 1.30 1.11 0.97 0.92 0.91 0.80 0.66 0.53 0.34 0.24 0.20 0.18 0.16 0.15 0.13 0.08 0.03 0.02 0.01 0.00 0.00 0.00 0.00 0.00 0.00 0.00 0.00 0.00 0.00 0.00 0.00 0.00 0.00 0.00 0.00 0.00 0.00 0.01 0.01 0.01
0.90 0.89 0.96 1.03 1.09 1.08 1.06 1.05 0.99 0.90 0.78 0.70 0.67 0.55 0.45 0.38 0.28 0.26 0.23 0.21 0.17 0.09 0.04 0.02 0.04 0.01 0.00 0.00 0.00 0.00 0.00 0.00 0.00 0.00 0.00 0.00 0.00 0.00 0.00 0.00 0.01 0.00 0.00 0.00 0.00 0.00 0.00
0.99 0.90 0.89 0.82 0.77 0.77 0.83 0.85 0.65 0.61 0.61 0.60 0.56 0.52 0.49 0.48 0.43 0.35 0.25 0.18 0.14 0.10 0.04 0.01 0.01 0.00 0.00 0.00 0.00 0.00 0.00 0.00 0.00 0.01 0.00 0.00 0.00 0.00 0.00 0.00 0.00 0.00 0.00 0.00 0.00 0.00 0.00
1.04 0.86 0.89 0.91 0.85 0.74 0.67 0.79 0.81 0.60 0.49 0.45 0.42 0.41 0.39 0.40 0.40 0.26 0.14 0.15 0.10 0.11 0.09 0.02 0.02 0.02 0.00 0.00 0.01 0.00 0.00 0.00 0.01 0.05 0.03 0.01 0.01 0.00 0.00 0.00 0.00 0.00 0.00 0.00 0.00 0.00 0.00
1.04 0.87 0.78 0.80 0.82 0.86 0.87 0.87 0.83 0.76 0.54 0.47 0.43 0.44 0.51 0.59 0.64 0.51 0.21 0.10 0.02 0.02 0.06 0.00 0.00 0.00 0.00 0.02 0.04 0.00 0.00 0.00 0.01 0.04 0.09 0.04 0.01 0.00 0.01 0.03 0.02 0.01 0.00 0.00 0.00 0.00 0.00
1.32 1.15 1.08 0.99 0.89 0.85 0.94 0.87 0.76 0.78 0.73 0.57 0.58 0.57 0.55 0.56 0.56 0.29 0.35 0.19 0.10 0.03 0.33 0.04 0.00 0.00 0.00 0.00 0.01 0.00 0.00 0.00 0.01 0.03 0.08 0.14 0.02 0.02 0.02 0.02 0.01 0.04 0.00 0.01 0.01 0.02 0.05
1.49 1.43 1.37 1.30 1.28 1.24 1.09 0.97 0.99 0.90 0.87 0.78 0.68 0.54 0.49 0.33 0.15 0.14 0.12 0.09 0.06 0.13 0.73 0.03 0.00 0.00 0.00 0.00 0.00 0.00 0.00 0.00 0.02 0.02 0.11 0.10 0.04 0.06 0.05 0.02 0.02 0.04 0.01 0.03 0.02 0.02 0.05
1.36 1.21 1.22 1.28 1.11 1.11 1.23 1.18 0.98 0.92 0.97 1.12 1.04 0.70 0.48 0.34 0.20 0.17 0.17 0.20 0.37 0.76 0.61 0.01 0.00 0.00 0.00 0.00 0.00 0.00 0.00 0.00 0.01 0.17 0.13 0.04 0.06 0.04 0.03 0.01 0.04 0.04 0.05 0.02 0.01 0.06 0.20
1.72 1.47 1.17 1.01 0.99 0.94 0.99 1.06 0.99 0.99 1.02 1.06 1.24 1.18 0.79 0.35 0.27 0.20 0.21 0.54 1.13 0.79 0.08 0.01 0.00 0.00 0.00 0.00 0.00 0.00 0.00 0.00 0.02 0.08 0.07 0.04 0.07 0.02 0.00 0.01 0.01 0.08 0.21 0.27 0.22 0.16 0.10
1.39 1.45 1.23 0.87 0.74 0.74 0.64 0.72 0.69 0.58 0.63 0.84 1.03 1.37 1.11 0.49 0.39 0.40 0.82 1.31 0.95 0.11 0.01 0.00 0.00 0.00 0.00 0.00 0.00 0.00 0.00 0.01 0.00 0.00 0.05 0.09 0.06 0.00 0.00 0.00 0.03 0.03 0.11 0.22 0.30 0.19 0.12
0.88 1.02 1.13 1.00 0.83 0.69 0.61 0.58 0.61 0.78 0.76 0.71 1.00 1.32 1.22 0.70 0.55 0.71 1.77 2.19 0.40 0.05 0.01 0.01 0.04 0.03 0.00 0.00 0.00 0.00 0.00 0.01 0.00 0.00 0.03 0.05 0.03 0.00 0.00 0.00 0.04 0.18 0.17 0.10 0.45 0.45 0.48
0.79 0.78 0.80 0.78 0.92 0.89 0.69 0.47 0.57 0.76 1.09 1.31 1.47 1.54 1.17 0.69 1.08 2.01 3.18 1.50 0.05 0.01 0.00 0.03 0.13 0.20 0.01 0.01 0.02 0.01 0.02 0.03 0.04 0.02 0.00 0.06 0.13 0.02 0.00 0.01 0.01 0.09 0.23 0.66 0.98 0.86 0.40
1.02 0.76 0.69 0.65 0.72 0.91 1.01 0.87 0.63 0.73 1.08 1.62 2.41 2.55 1.21 0.78 2.29 4.21 3.61 0.92 0.03 0.01 0.01 0.04 0.05 0.10 0.03 0.02 0.03 0.06 0.10 0.16 0.11 0.09 0.05 0.05 0.11 0.08 0.05 0.03 0.05 0.11 0.33 0.62 0.78 0.49 0.55
1.28 1.25 1.05 0.88 0.73 0.74 0.98 1.26 1.11 0.97 1.47 2.38 3.35 2.73 0.96 1.42 3.40 3.62 1.58 0.24 0.03 0.03 0.03 0.04 0.04 0.05 0.04 0.02 0.02 0.03 0.05 0.12 0.05 0.07 0.17 0.22 0.28 0.12 0.02 0.00 0.02 0.09 0.17 0.49 1.11 0.97 0.82
1.07 1.21 1.30 1.49 1.27 1.05 1.00 1.25 1.57 1.51 1.98 2.87 3.75 2.29 1.62 2.17 2.93 1.62 0.62 0.17 0.07 0.03 0.06 0.10 0.07 0.03 0.02 0.02 0.05 0.05 0.07 0.10 0.07 0.10 0.23 0.33 0.63 0.53 0.27 0.22 0.13 0.12 0.18 0.35 0.63 0.94 0.86
1.20 0.95 1.08 1.33 1.46 1.40 1.32 1.30 1.42 1.92 2.53 3.53 4.33 3.24 3.60 3.21 1.37 0.80 0.77 0.46 0.25 0.09 0.13 0.19 0.16 0.10 0.09 0.09 0.06 0.07 0.12 0.14 0.14 0.21 0.36 0.50 0.48 0.53 0.47 0.38 0.43 0.34 0.21 0.33 0.97 1.50 0.93
1.31 1.25 1.10 1.16 1.29 1.45 1.43 1.55 1.61 1.89 2.97 4.90 5.81 2.84 1.62 2.21 1.27 0.51 0.51 0.48 0.28 0.30 0.26 0.21 0.64 0.42 0.28 0.24 0.16 0.15 0.23 0.20 0.24 0.33 0.53 0.87 0.84 0.59 0.39 0.29 0.34 0.42 0.32 0.26 0.49 0.61 0.95
1.46 1.32 1.14 1.21 1.09 1.45 1.60 1.60 1.74 2.16 3.49 6.04 5.34 1.83 0.87 0.45 0.38 0.54 0.66 0.50 0.23 0.19 0.24 0.32 0.48 0.19 0.23 0.30 0.20 0.27 0.38 0.42 0.40 0.39 0.58 0.93 0.95 0.65 0.41 0.40 0.33 0.25 0.11 0.25 0.36 0.38 0.53
1.33 1.24 1.13 1.01 1.02 1.13 1.63 1.71 1.78 2.33 4.54 7.15 4.24 1.26 1.20 1.01 0.43 0.67 0.54 0.27 0.25 0.27 0.22 0.19 0.30 0.33 0.30 0.33 0.33 0.32 0.31 0.32 0.37 0.47 0.66 0.77 0.91 0.84 0.52 0.30 0.58 0.47 0.08 0.12 0.20 0.36 0.59
1.24 1.09 1.18 1.06 0.88 0.90 1.28 1.67 1.80 2.35 3.73 3.94 2.73 1.58 1.98 1.41 0.85 0.49 0.13 0.11 0.15 0.22 0.31 0.20 0.34 0.66 0.35 0.19 0.32 0.42 0.44 0.31 0.29 0.28 0.42 0.76 0.79 1.13 0.78 0.46 1.01 0.25 0.17 0.27 0.28 0.45 0.54
1.21 1.20 1.18 1.32 1.18 0.92 1.02 1.47 1.57 2.04 2.66 2.54 2.29 2.06 2.38 1.76 0.44 0.40 0.30 0.21 0.22 0.34 0.36 0.31 0.27 0.41 0.45 0.64 1.08 0.94 0.66 0.73 0.44 0.30 0.30 0.36 0.67 1.16 1.05 0.82 0.38 0.16 0.28 0.53 0.62 0.62 0.44
1.13 1.25 1.43 1.18 1.29 1.09 0.95 1.26 1.42 1.65 2.40 2.21 2.01 1.95 2.96 2.46 0.97 0.26 0.33 0.40 0.51 0.51 0.71 0.51 0.59 0.49 0.64 1.21 1.58 1.17 0.76 0.56 0.44 0.41 0.26 0.46 0.63 1.25 0.96 1.08 0.70 0.73 0.26 0.21 0.62 0.72 0.31
1.33 1.32 1.65 1.49 1.09 1.20 0.96 1.07 1.28 1.35 1.77 2.13 1.90 1.67 3.17 3.59 1.03 0.53 0.60 0.59 0.55 0.60 0.83 0.70 0.94 0.96 1.00 1.47 1.71 1.46 0.74 0.32 0.60 0.84 0.62 0.62 0.89 1.10 0.83 1.00 0.72 0.47 0.26 0.36 0.75 0.73 0.24
1.50 1.48 1.38 1.57 1.34 1.14 0.99 0.89 1.25 1.32 1.50 2.07 1.73 1.49 2.49 3.00 1.16 0.84 0.60 0.66 0.59 0.62 0.90 0.90 1.48 1.49 1.38 1.32 1.06 0.98 0.96 0.47 0.70 1.13 0.67 0.80 0.89 0.95 1.18 1.62 1.00 0.12 0.29 0.63 0.80 0.44 0.29
1.49 1.39 1.21 1.12 1.60 1.24 1.02 0.96 1.37 1.66 1.69 2.07 1.98 1.39 1.91 2.88 1.59 0.83 0.51 0.43 0.35 0.34 0.47 0.72 1.06 1.11 1.31 1.12 0.71 0.64 0.67 0.60 0.68 0.91 0.88 1.45 1.19 1.27 0.99 0.96 0.56 0.30 0.43 0.48 0.40 0.41 0.44

GFSGBSN_prec_precacc_159.txt.gz
Total_Precipitation_Accumulation
1.02 0.83 0.66 0.38 0.21 0.15 0.09 0.09 0.07 0.05 0.04 0.04 0.04 0.03 0.03 0.04 0.03 0.04 0.03 0.03 0.02 0.02 0.02 0.01 0.01 0.02 0.00 0.00 0.00 0.00 0.00 0.00 0.00 0.00 0.00 0.00 0.00 0.00 0.00 0.00 0.00 0.00 0.00 0.00 0.00 0.00 0.03
1.81 1.55 1.34 1.13 0.87 0.51 0.33 0.20 0.12 0.08 0.08 0.14 0.17 0.16 0.14 0.12 0.10 0.08 0.05 0.03 0.02 0.03 0.02 0.02 0.01 0.02 0.00 0.00 0.00 0.00 0.00 0.00 0.00 0.00 0.00 0.00 0.00 0.00 0.00 0.00 0.00 0.00 0.00 0.00 0.00 0.00 0.01
2.21 2.04 1.86 1.62 1.40 1.29 1.20 0.93 0.69 0.61 0.69 0.73 0.55 0.43 0.31 0.21 0.15 0.12 0.08 0.04 0.03 0.04 0.03 0.02 0.02 0.02 0.00 0.00 0.00 0.00 0.00 0.00 0.00 0.00 0.00 0.00 0.00 0.00 0.00 0.00 0.00 0.00 0.00 0.00 0.00 0.00 0.02
1.70 2.00 2.04 1.97 1.73 1.53 1.31 1.24 1.23 1.24 1.23 1.13 0.96 0.68 0.44 0.29 0.21 0.18 0.16 0.11 0.09 0.07 0.05 0.04 0.02 0.02 0.00 0.00 0.00 0.00 0.00 0.00 0.00 0.00 0.00 0.00 0.00 0.00 0.00 0.00 0.00 0.00 0.00 0.01 0.01 0.00 0.01
0.94 1.13 1.44 1.64 1.70 1.62 1.51 1.36 1.13 0.98 0.92 0.91 0.80 0.66 0.53 0.34 0.24 0.20 0.18 0.17 0.16 0.13 0.08 0.03 0.02 0.01 0.00 0.00 0.00 0.00 0.00 0.00 0.00 0.00 0.00 0.00 0.00 0.00 0.00 0.00 0.00 0.00 0.00 0.00 0.01 0.01 0.01
0.91 0.90 0.98 1.06 1.11 1.11 1.11 1.11 1.09 0.96 0.80 0.71 0.68 0.56 0.46 0.40 0.30 0.27 0.26 0.25 0.20 0.10 0.04 0.02 0.04 0.01 0.00 0.00 0.00 0.00 0.00 0.00 0.00 0.00 0.00 0.00 0.00 0.00 0.00 0.00 0.01 0.00 0.00 0.00 0.00 0.00 0.00
1.01 0.91 0.90 0.83 0.79 0.78 0.85 0.90 0.71 0.71 0.69 0.66 0.61 0.57 0.52 0.50 0.47 0.38 0.29 0.21 0.16 0.10 0.05 0.01 0.01 0.00 0.00 0.00 0.00 0.00 0.00 0.00 0.00 0.01 0.00 0.00 0.00 0.00 0.00 0.00 0.00 0.00 0.00 0.00 0.00 0.00 0.00
1.07 0.88 0.90 0.91 0.85 0.75 0.68 0.82 0.85 0.65 0.57 0.52 0.47 0.47 0.47 0.47 0.46 0.35 0.20 0.18 0.11 0.12 0.09 0.02 0.02 0.02 0.00 0.00 0.01 0.00 0.00 0.00 0.01 0.05 0.03 0.01 0.01 0.00 0.00 0.00 0.00 0.00 0.00 0.00 0.00 0.00 0.00
1.09 0.89 0.79 0.82 0.83 0.87 0.88 0.90 0.86 0.81 0.59 0.53 0.52 0.51 0.59 0.73 0.87 0.78 0.42 0.16 0.03 0.02 0.10 0.01 0.00 0.00 0.00 0.02 0.04 0.00 0.00 0.00 0.01 0.04 0.09 0.04 0.01 0.00 0.01 0.03 0.02 0.01 0.00 0.00 0.00 0.00 0.00
1.38 1.20 1.11 1.01 0.91 0.88 0.96 0.89 0.80 0.84 0.81 0.65 0.63 0.65 0.70 0.84 1.08 0.56 0.54 0.29 0.15 0.11 0.58 0.08 0.00 0.00 0.00 0.00 0.01 0.00 0.00 0.00 0.01 0.03 0.08 0.14 0.02 0.02 0.02 0.02 0.01 0.04 0.00 0.01 0.01 0.02 0.05
1.60 1.50 1.43 1.34 1.31 1.28 1.11 1.00 1.02 0.95 0.97 0.90 0.82 0.63 0.60 0.55 0.48 0.38 0.27 0.19 0.21 0.47 1.28 0.07 0.00 0.00 0.00 0.00 0.00 0.00 0.00 0.00 0.02 0.02 0.11 0.10 0.04 0.06 0.05 0.02 0.02 0.04 0.01 0.03 0.02 0.02 0.05
1.42 1.33 1.30 1.36 1.14 1.13 1.28 1.21 1.02 0.95 1.04 1.26 1.17 0.86 0.72 0.79 0.48 0.33 0.27 0.34 0.64 1.40 1.07 0.02 0.00 0.00 0.00 0.00 0.00 0.00 0.00 0.00 0.01 0.17 0.13 0.04 0.06 0.04 0.03 0.01 0.04 0.04 0.05 0.02 0.01 0.06 0.20
1.75 1.57 1.31 1.11 1.08 0.96 1.02 1.12 1.07 1.08 1.09 1.16 1.41 1.35 1.01 0.63 0.47 0.29 0.32 0.69 1.47 1.22 0.14 0.02 0.00 0.00 0.00 0.00 0.00 0.00 0.00 0.00 0.02 0.08 0.07 0.04 0.07 0.02 0.00 0.01 0.01 0.08 0.21 0.27 0.22 0.16 0.10
1.58 1.65 1.43 1.03 0.93 0.84 0.71 0.81 0.88 0.73 0.79 0.95 1.18 1.61 1.44 0.70 0.51 0.48 1.00 1.63 1.37 0.18 0.01 0.00 0.00 0.00 0.00 0.00 0.00 0.00 0.00 0.01 0.00 0.00 0.05 0.09 0.06 0.00 0.00 0.00 0.03 0.03 0.11 0.22 0.30 0.19 0.12
1.07 1.40 1.61 1.47 1.15 0.94 0.76 0.73 0.88 1.11 0.99 1.00 1.33 1.71 1.58 0.91 0.64 0.86 1.99 2.50 0.54 0.06 0.01 0.02 0.04 0.03 0.00 0.00 0.00 0.00 0.00 0.01 0.00 0.00 0.03 0.05 0.03 0.00 0.00 0.00 0.04 0.18 0.17 0.10 0.47 0.46 0.49
1.03 1.11 1.38 1.46 1.63 1.38 1.06 0.72 0.81 1.10 1.51 1.74 2.12 2.06 1.51 0.91 1.25 2.15 3.43 1.74 0.07 0.01 0.00 0.03 0.13 0.20 0.01 0.01 0.02 0.01 0.02 0.03 0.04 0.02 0.00 0.06 0.13 0.02 0.00 0.01 0.01 0.10 0.23 0.67 1.00 0.87 0.40
1.41 1.07 1.10 1.31 1.41 1.75 1.74 1.35 0.96 1.09 1.51 2.11 2.77 2.96 1.61 1.05 2.58 4.52 3.88 1.02 0.03 0.01 0.01 0.04 0.05 0.10 0.03 0.02 0.03 0.06 0.10 0.16 0.11 0.09 0.05 0.05 0.11 0.08 0.05 0.03 0.05 0.11 0.33 0.62 0.81 0.50 0.56
1.63 1.50 1.32 1.54 1.14 1.44 1.78 2.22 1.60 1.41 1.87 2.79 3.83 3.21 1.34 1.92 3.92 4.08 1.80 0.26 0.03 0.03 0.03 0.04 0.04 0.05 0.04 0.02 0.02 0.03 0.05 0.12 0.05 0.07 0.17 0.22 0.28 0.12 0.02 0.00 0.02 0.09 0.17 0.49 1.14 0.98 0.84
1.30 1.42 1.58 2.11 1.64 1.39 1.35 1.80 2.38 1.96 2.47 3.28 4.10 2.71 2.03 2.60 3.44 2.05 0.79 0.19 0.08 0.05 0.06 0.10 0.07 0.03 0.02 0.02 0.05 0.05 0.08 0.11 0.07 0.10 0.23 0.33 0.63 0.53 0.27 0.22 0.13 0.12 0.18 0.35 0.64 0.96 0.87
1.37 1.12 1.34 1.68 1.82 1.66 1.50 1.48 1.73 2.36 2.91 3.77 4.57 3.49 4.04 3.74 1.74 0.96 0.93 0.51 0.27 0.12 0.14 0.19 0.16 0.10 0.09 0.09 0.06 0.07 0.13 0.14 0.15 0.21 0.36 0.50 0.48 0.53 0.47 0.38 0.44 0.35 0.22 0.33 0.97 1.50 0.94
1.42 1.35 1.24 1.29 1.47 1.62 1.55 1.64 1.72 2.05 3.10 5.04 5.95 2.98 1.75 2.55 1.60 0.72 0.61 0.56 0.31 0.32 0.27 0.22 0.65 0.42 0.28 0.25 0.16 0.15 0.23 0.22 0.24 0.33 0.53 0.87 0.84 0.60 0.39 0.29 0.34 0.42 0.32 0.26 0.49 0.61 0.96
1.46 1.32 1.15 1.22 1.11 1.48 1.63 1.62 1.76 2.19 3.52 6.07 5.36 1.86 0.92 0.50 0.46 0.73 0.86 0.67 0.34 0.24 0.25 0.33 0.49 0.20 0.24 0.31 0.21 0.28 0.39 0.44 0.42 0.39 0.59 0.94 0.95 0.66 0.42 0.40 0.33 0.25 0.11 0.25 0.36 0.38 0.53
1.33 1.24 1.13 1.01 1.02 1.14 1.63 1.71 1.78 2.33 4.54 7.15 4.24 1.26 1.21 1.04 0.48 0.80 0.71 0.39 0.36 0.37 0.29 0.20 0.31 0.33 0.31 0.34 0.33 0.32 0.31 0.32 0.38 0.47 0.66 0.77 0.92 0.84 0.52 0.30 0.58 0.47 0.08 0.12 0.20 0.36 0.59
1.25 1.09 1.18 1.06 0.88 0.91 1.28 1.67 1.80 2.35 3.73 3.94 2.73 1.58 1.99 1.42 0.89 0.51 0.18 0.18 0.19 0.26 0.34 0.21 0.34 0.67 0.36 0.20 0.32 0.42 0.44 0.31 0.29 0.28 0.42 0.76 0.79 1.13 0.78 0.46 1.01 0.25 0.17 0.27 0.28 0.45 0.54
1.22 1.21 1.18 1.32 1.18 0.92 1.02 1.47 1.57 2.04 2.66 2.54 2.29 2.06 2.39 1.77 0.45 0.42 0.33 0.25 0.24 0.36 0.36 0.32 0.28 0.41 0.45 0.64 1.09 0.95 0.66 0.74 0.44 0.30 0.30 0.36 0.67 1.16 1.05 0.82 0.38 0.16 0.28 0.53 0.62 0.62 0.44
1.14 1.26 1.44 1.19 1.29 1.09 0.95 1.26 1.42 1.65 2.40 2.21 2.01 1.95 2.96 2.47 0.99 0.26 0.34 0.41 0.51 0.51 0.71 0.52 0.59 0.49 0.64 1.21 1.58 1.17 0.77 0.56 0.44 0.41 0.26 0.46 0.64 1.25 0.96 1.08 0.70 0.73 0.26 0.21 0.62 0.72 0.31
1.34 1.32 1.65 1.49 1.09 1.20 0.96 1.07 1.28 1.35 1.77 2.13 1.90 1.67 3.17 3.59 1.03 0.53 0.60 0.60 0.55 0.60 0.83 0.70 0.94 0.96 1.00 1.47 1.71 1.46 0.74 0.32 0.60 0.84 0.62 0.62 0.89 1.10 0.83 1.00 0.73 0.47 0.26 0.36 0.75 0.75 0.25
1.51 1.49 1.39 1.57 1.34 1.14 0.99 0.89 1.25 1.32 1.50 2.07 1.73 1.49 2.49 3.00 1.16 0.84 0.60 0.66 0.59 0.62 0.90 0.90 1.49 1.49 1.38 1.32 1.06 0.98 0.96 0.47 0.70 1.13 0.67 0.80 0.89 0.96 1.20 1.65 1.02 0.12 0.30 0.64 0.83 0.46 0.31
1.50 1.41 1.22 1.12 1.60 1.24 1.02 0.96 1.37 1.66 1.69 2.07 1.98 1.39 1.91 2.88 1.59 0.83 0.51 0.43 0.35 0.34 0.47 0.72 1.06 1.11 1.31 1.13 0.71 0.64 0.67 0.60 0.68 0.91 0.88 1.45 1.19 1.27 1.00 0.97 0.56 0.30 0.43 0.49 0.41 0.42 0.44

GFSGBSN_prec_precacc_162.txt.gz
Total_Precipitation_Accumulation
1.05 0.86 0.70 0.41 0.23 0.15 0.09 0.09 0.07 0.05 0.04 0.04 0.04 0.03 0.03 0.04 0.03 0.04 0.03 0.03 0.02 0.02 0.02 0.01 0.01 0.02 0.00 0.00 0.00 0.00 0.00 0.00 0.00 0.00 0.00 0.00 0.00 0.00 0.00 0.00 0.00 0.00 0.00 0.00 0.00 0.00 0.03
1.83 1.58 1.37 1.17 0.91 0.55 0.34 0.20 0.12 0.08 0.08 0.14 0.17 0.16 0.14 0.12 0.10 0.08 0.05 0.03 0.02 0.03 0.02 0.02 0.01 0.02 0.00 0.00 0.00 0.00 0.00 0.00 0.00 0.00 0.00 0.00 0.00 0.00 0.00 0.00 0.00 0.00 0.00 0.00 0.00 0.00 0.01
2.22 2.07 1.88 1.64 1.42 1.36 1.28 0.95 0.69 0.61 0.69 0.73 0.55 0.43 0.31 0.21 0.15 0.12 0.08 0.04 0.03 0.04 0.03 0.02 0.02 0.02 0.00 0.00 0.00 0.00 0.00 0.00 0.00 0.00 0.00 0.00 0.00 0.00 0.00 0.00 0.00 0.00 0.00 0.00 0.00 0.00 0.02
1.70 2.02 2.11 2.02 1.74 1.55 1.40 1.36 1.27 1.25 1.23 1.13 0.96 0.68 0.44 0.29 0.21 0.18 0.16 0.11 0.09 0.07 0.05 0.04 0.02 0.02 0.00 0.00 0.00 0.00 0.00 0.00 0.00 0.00 0.00 0.00 0.00 0.00 0.00 0.00 0.00 0.00 0.00 0.01 0.01 0.00 0.01
0.95 1.13 1.45 1.71 1.79 1.64 1.54 1.46 1.29 1.08 0.92 0.91 0.80 0.66 0.53 0.34 0.24 0.20 0.18 0.17 0.16 0.14 0.08 0.03 0.02 0.01 0.00 0.00 0.00 0.00 0.00 0.00 0.00 0.00 0.00 0.00 0.00 0.00 0.00 0.00 0.00 0.00 0.00 0.00 0.01 0.01 0.01
0.93 0.91 0.98 1.07 1.15 1.16 1.12 1.12 1.18 1.13 0.93 0.72 0.68 0.56 0.46 0.40 0.30 0.27 0.26 0.25 0.20 0.10 0.05 0.02 0.04 0.01 0.00 0.00 0.00 0.00 0.00 0.00 0.00 0.00 0.00 0.00 0.00 0.00 0.00 0.00 0.01 0.00 0.00 0.00 0.00 0.00 0.00
1.03 0.93 0.91 0.83 0.80 0.80 0.87 0.90 0.72 0.77 0.84 0.77 0.62 0.57 0.52 0.50 0.47 0.38 0.30 0.22 0.17 0.11 0.05 0.01 0.01 0.00 0.00 0.00 0.00 0.00 0.00 0.00 0.00 0.01 0.00 0.00 0.00 0.00 0.00 0.00 0.00 0.00 0.00 0.00 0.00 0.00 0.00
1.08 0.89 0.91 0.92 0.86 0.76 0.69 0.82 0.85 0.67 0.65 0.70 0.61 0.48 0.47 0.47 0.46 0.35 0.21 0.19 0.11 0.12 0.09 0.02 0.02 0.02 0.00 0.00 0.01 0.00 0.00 0.00 0.01 0.05 0.03 0.01 0.01 0.00 0.00 0.00 0.00 0.00 0.00 0.00 0.00 0.00 0.00
1.09 0.90 0.80 0.83 0.84 0.88 0.88 0.90 0.86 0.81 0.61 0.61 0.68 0.66 0.63 0.74 0.88 0.81 0.44 0.16 0.03 0.02 0.11 0.01 0.00 0.00 0.00 0.02 0.04 0.00 0.00 0.00 0.01 0.04 0.09 0.04 0.01 0.00 0.01 0.03 0.02 0.01 0.00 0.00 0.00 0.00 0.00
1.39 1.21 1.12 1.02 0.92 0.89 0.97 0.90 0.80 0.84 0.81 0.68 0.70 0.83 0.90 0.95 1.21 0.61 0.57 0.29 0.17 0.13 0.73 0.11 0.00 0.00 0.00 0.00 0.01 0.00 0.00 0.00 0.01 0.03 0.08 0.14 0.02 0.02 0.02 0.02 0.01 0.04 0.00 0.01 0.01 0.02 0.05
1.61 1.51 1.44 1.35 1.31 1.28 1.12 1.01 1.02 0.96 0.98 0.92 0.89 0.79 0.74 0.74 0.60 0.40 0.30 0.21 0.28 0.66 1.72 0.10 0.00 0.00 0.00 0.00 0.00 0.00 0.00 0.00 0.02 0.02 0.11 0.10 0.04 0.06 0.05 0.02 0.02 0.04 0.01 0.03 0.02 0.02 0.05
1.43 1.34 1.31 1.39 1.15 1.14 1.29 1.23 1.04 0.96 1.05 1.27 1.22 1.01 0.92 1.15 0.58 0.38 0.36 0.48 0.92 1.99 1.50 0.03 0.00 0.00 0.00 0.00 0.00 0.00 0.00 0.00 0.01 0.17 0.13 0.04 0.06 0.04 0.03 0.01 0.04 0.04 0.05 0.02 0.01 0.06 0.20
1.76 1.58 1.32 1.12 1.09 0.97 1.02 1.13 1.08 1.09 1.10 1.17 1.45 1.45 1.19 0.90 0.74 0.34 0.41 0.90 1.94 1.69 0.23 0.02 0.00 0.00 0.00 0.00 0.00 0.00 0.00 0.00 0.02 0.08 0.07 0.04 0.07 0.02 0.00 0.01 0.01 0.08 0.21 0.27 0.22 0.16 0.10
1.59 1.66 1.44 1.04 0.93 0.85 0.72 0.81 0.88 0.74 0.80 0.97 1.21 1.71 1.65 0.94 0.60 0.61 1.30 2.02 1.83 0.34 0.02 0.00 0.00 0.00 0.00 0.00 0.00 0.00 0.00 0.01 0.00 0.00 0.05 0.09 0.06 0.00 0.00 0.00 0.03 0.03 0.11 0.22 0.30 0.19 0.12
1.07 1.41 1.62 1.49 1.16 0.95 0.78 0.73 0.88 1.11 1.00 1.02 1.40 1.88 1.87 1.25 0.86 0.92 2.17 3.03 1.00 0.13 0.01 0.02 0.04 0.03 0.00 0.00 0.00 0.00 0.00 0.01 0.00 0.00 0.03 0.05 0.03 0.00 0.00 0.00 0.04 0.18 0.17 0.10 0.47 0.46 0.49
1.04 1.12 1.43 1.48 1.65 1.39 1.07 0.74 0.82 1.12 1.53 1.80 2.26 2.42 1.78 1.12 1.44 2.49 3.86 2.03 0.16 0.02 0.00 0.03 0.14 0.20 0.01 0.01 0.02 0.01 0.02 0.03 0.04 0.02 0.00 0.06 0.13 0.02 0.00 0.01 0.01 0.10 0.24 0.67 1.01 0.87 0.41
1.42 1.09 1.15 1.38 1.44 1.79 1.76 1.37 0.98 1.12 1.55 2.21 3.03 3.25 1.81 1.19 2.88 5.05 4.49 1.51 0.16 0.01 0.01 0.06 0.09 0.10 0.03 0.02 0.03 0.06 0.10 0.16 0.11 0.09 0.05 0.05 0.11 0.08 0.05 0.03 0.05 0.11 0.33 0.62 0.81 0.50 0.56
1.74 1.63 1.42 1.60 1.22 1.50 1.82 2.25 1.63 1.45 1.97 3.03 4.05 3.46 1.59 2.16 4.25 4.42 2.17 0.45 0.10 0.03 0.04 0.07 0.07 0.05 0.04 0.02 0.02 0.03 0.05 0.12 0.05 0.07 0.17 0.22 0.28 0.12 0.02 0.00 0.02 0.09 0.17 0.49 1.14 0.98 0.84
1.59 1.66 1.67 2.25 1.70 1.51 1.47 1.93 2.59 2.13 2.68 3.44 4.25 2.86 2.31 2.96 3.77 2.32 0.93 0.28 0.10 0.06 0.07 0.13 0.09 0.03 0.02 0.02 0.05 0.05 0.08 0.11 0.07 0.10 0.23 0.33 0.63 0.53 0.27 0.22 0.13 0.12 0.18 0.35 0.64 0.96 0.87
1.81 1.35 1.46 1.94 2.06 1.77 1.72 1.72 2.13 2.98 3.21 3.91 4.73 3.65 4.32 4.12 2.13 1.14 1.07 0.61 0.37 0.17 0.17 0.20 0.16 0.10 0.09 0.09 0.06 0.07 0.13 0.14 0.15 0.21 0.36 0.50 0.48 0.53 0.47 0.38 0.44 0.35 0.22 0.33 0.97 1.50 0.94
1.80 1.56 1.43 1.58 1.79 1.90 1.91 2.06 2.01 2.46 3.52 5.26 6.17 3.23 1.92 2.82 1.86 0.91 0.71 0.64 0.42 0.45 0.38 0.25 0.65 0.42 0.29 0.25 0.16 0.15 0.23 0.22 0.24 0.33 0.53 0.87 0.84 0.60 0.39 0.29 0.34 0.42 0.32 0.26 0.49 0.61 0.96
1.67 1.41 1.29 1.40 1.36 1.88 2.05 2.00 2.06 2.38 3.83 6.31 5.68 2.13 1.08 0.62 0.60 0.88 1.03 0.81 0.41 0.33 0.36 0.42 0.50 0.20 0.24 0.32 0.22 0.29 0.39 0.44 0.42 0.39 0.59 0.94 0.95 0.66 0.42 0.40 0.33 0.25 0.11 0.25 0.36 0.38 0.53
1.33 1.25 1.17 1.07 1.10 1.32 1.86 1.93 2.03 2.52 4.73 7.42 4.46 1.40 1.32 1.19 0.62 0.94 0.86 0.49 0.47 0.46 0.36 0.24 0.32 0.35 0.32 0.35 0.34 0.32 0.31 0.32 0.38 0.47 0.66 0.77 0.92 0.84 0.52 0.30 0.58 0.47 0.08 0.12 0.20 0.36 0.59
1.25 1.09 1.19 1.07 0.89 0.92 1.30 1.70 1.83 2.37 3.75 4.01 2.79 1.62 2.02 1.54 0.97 0.57 0.26 0.24 0.23 0.33 0.42 0.23 0.34 0.68 0.36 0.20 0.32 0.42 0.44 0.31 0.29 0.28 0.42 0.76 0.79 1.13 0.78 0.46 1.01 0.25 0.17 0.27 0.28 0.45 0.54
1.22 1.21 1.18 1.32 1.18 0.92 1.02 1.47 1.57 2.04 2.66 2.54 2.29 2.06 2.39 1.78 0.47 0.43 0.34 0.26 0.26 0.40 0.43 0.33 0.28 0.41 0.45 0.64 1.09 0.95 0.66 0.74 0.44 0.30 0.30 0.36 0.67 1.16 1.05 0.82 0.38 0.16 0.28 0.53 0.62 0.62 0.44
1.14 1.26 1.44 1.19 1.29 1.09 0.95 1.26 1.42 1.65 2.40 2.21 2.01 1.95 2.96 2.47 0.99 0.26 0.35 0.41 0.51 0.51 0.72 0.52 0.59 0.49 0.64 1.21 1.58 1.17 0.77 0.56 0.44 0.41 0.26 0.46 0.64 1.25 0.96 1.08 0.70 0.73 0.26 0.21 0.62 0.72 0.31
1.34 1.32 1.65 1.49 1.09 1.20 0.96 1.07 1.28 1.35 1.77 2.13 1.90 1.67 3.17 3.59 1.03 0.54 0.61 0.60 0.55 0.60 0.83 0.70 0.94 0.96 1.00 1.48 1.73 1.47 0.74 0.32 0.60 0.84 0.62 0.62 0.89 1.10 0.83 1.00 0.73 0.47 0.26 0.36 0.75 0.75 0.25
1.51 1.49 1.39 1.57 1.34 1.14 0.99 0.89 1.25 1.32 1.50 2.07 1.73 1.49 2.49 3.00 1.16 0.84 0.60 0.66 0.59 0.62 0.90 0.90 1.49 1.49 1.38 1.32 1.07 0.99 0.97 0.47 0.70 1.13 0.67 0.80 0.89 0.96 1.20 1.65 1.02 0.12 0.30 0.64 0.83 0.46 0.31
1.50 1.41 1.22 1.12 1.60 1.24 1.02 0.96 1.37 1.66 1.69 2.07 1.98 1.39 1.91 2.88 1.59 0.83 0.51 0.43 0.35 0.34 0.47 0.72 1.06 1.11 1.31 1.13 0.71 0.64 0.67 0.60 0.68 0.91 0.88 1.45 1.19 1.27 1.00 0.97 0.56 0.30 0.43 0.49 0.41 0.42 0.44

GFSGBSN_prec_precacc_165.txt.gz
Total_Precipitation_Accumulation
1.08 0.96 0.88 0.54 0.28 0.16 0.09 0.09 0.07 0.05 0.04 0.04 0.04 0.03 0.03 0.04 0.03 0.04 0.03 0.03 0.02 0.02 0.02 0.01 0.01 0.02 0.00 0.00 0.00 0.00 0.00 0.00 0.00 0.00 0.00 0.00 0.00 0.00 0.00 0.00 0.00 0.00 0.00 0.00 0.00 0.00 0.03
1.83 1.59 1.45 1.34 1.04 0.61 0.35 0.21 0.12 0.08 0.08 0.14 0.17 0.16 0.14 0.12 0.10 0.08 0.05 0.03 0.02 0.03 0.02 0.02 0.01 0.02 0.00 0.00 0.00 0.00 0.00 0.00 0.00 0.00 0.00 0.00 0.00 0.00 0.00 0.00 0.00 0.00 0.00 0.00 0.00 0.00 0.01
2.22 2.07 1.89 1.70 1.57 1.50 1.35 0.98 0.70 0.61 0.69 0.73 0.55 0.43 0.31 0.21 0.15 0.12 0.08 0.04 0.03 0.04 0.03 0.02 0.02 0.02 0.00 0.00 0.00 0.00 0.00 0.00 0.00 0.00 0.00 0.00 0.00 0.00 0.00 0.00 0.00 0.00 0.00 0.00 0.00 0.00 0.02
1.70 2.02 2.11 2.02 1.78 1.67 1.54 1.47 1.34 1.27 1.23 1.13 0.96 0.68 0.44 0.29 0.21 0.18 0.16 0.11 0.09 0.07 0.05 0.04 0.02 0.02 0.00 0.00 0.00 0.00 0.00 0.00 0.00 0.00 0.00 0.00 0.00 0.00 0.00 0.00 0.00 0.00 0.00 0.01 0.01 0.00 0.01
0.95 1.13 1.46 1.71 1.79 1.67 1.59 1.57 1.42 1.20 0.97 0.91 0.80 0.66 0.53 0.34 0.24 0.20 0.18 0.17 0.16 0.14 0.08 0.03 0.02 0.01 0.00 0.00 0.00 0.00 0.00 0.00 0.00 0.00 0.00 0.00 0.00 0.00 0.00 0.00 0.00 0.00 0.00 0.00 0.01 0.01 0.01
0.94 0.92 0.99 1.08 1.15 1.18 1.17 1.16 1.25 1.27 1.13 0.83 0.69 0.56 0.46 0.40 0.30 0.27 0.26 0.25 0.21 0.11 0.05 0.02 0.04 0.01 0.00 0.00 0.00 0.00 0.00 0.00 0.00 0.00 0.00 0.00 0.00 0.00 0.00 0.00 0.01 0.00 0.00 0.00 0.00 0.00 0.00
1.04 0.94 0.92 0.84 0.80 0.80 0.89 0.93 0.75 0.82 0.97 1.01 0.82 0.62 0.53 0.50 0.47 0.38 0.30 0.22 0.17 0.11 0.05 0.01 0.01 0.00 0.00 0.00 0.00 0.00 0.00 0.00 0.00 0.01 0.00 0.00 0.00 0.00 0.00 0.00 0.00 0.00 0.00 0.00 0.00 0.00 0.00
1.09 0.90 0.91 0.94 0.87 0.77 0.70 0.84 0.87 0.68 0.69 0.81 0.86 0.71 0.55 0.49 0.46 0.35 0.21 0.19 0.11 0.12 0.09 0.02 0.02 0.02 0.00 0.00 0.01 0.00 0.00 0.00 0.01 0.05 0.03 0.01 0.01 0.00 0.00 0.00 0.00 0.00 0.00 0.00 0.00 0.00 0.00
1.10 0.91 0.81 0.83 0.85 0.89 0.89 0.91 0.88 0.82 0.62 0.65 0.83 0.99 0.93 0.85 0.89 0.81 0.44 0.16 0.03 0.02 0.11 0.01 0.00 0.00 0.00 0.02 0.04 0.00 0.00 0.00 0.01 0.04 0.09 0.04 0.01 0.00 0.01 0.03 0.02 0.01 0.00 0.00 0.00 0.00 0.00
1.40 1.22 1.13 1.02 0.93 0.89 0.99 0.91 0.81 0.85 0.82 0.69 0.74 1.06 1.40 1.32 1.41 0.63 0.58 0.29 0.17 0.13 0.77 0.12 0.00 0.00 0.00 0.00 0.01 0.00 0.00 0.00 0.01 0.03 0.08 0.14 0.02 0.02 0.02 0.02 0.01 0.04 0.00 0.01 0.01 0.02 0.05
1.62 1.53 1.46 1.37 1.32 1.28 1.13 1.02 1.03 0.97 0.98 0.93 0.90 0.87 1.10 1.17 0.78 0.45 0.31 0.22 0.30 0.74 1.96 0.11 0.00 0.00 0.00 0.00 0.00 0.00 0.00 0.00 0.02 0.02 0.11 0.10 0.04 0.06 0.05 0.02 0.02 0.04 0.01 0.03 0.02 0.02 0.05
1.44 1.34 1.33 1.41 1.18 1.14 1.29 1.23 1.05 0.97 1.06 1.28 1.22 1.03 1.05 1.55 0.76 0.43 0.41 0.53 1.16 2.54 1.84 0.04 0.00 0.00 0.00 0.00 0.00 0.00 0.00 0.00 0.01 0.17 0.13 0.04 0.06 0.04 0.03 0.01 0.04 0.04 0.05 0.02 0.01 0.06 0.20
1.77 1.59 1.33 1.14 1.12 0.99 1.03 1.13 1.09 1.11 1.11 1.18 1.46 1.47 1.26 1.03 0.94 0.37 0.47 1.25 2.62 2.24 0.30 0.02 0.00 0.00 0.00 0.00 0.00 0.00 0.00 0.00 0.02 0.08 0.07 0.04 0.07 0.02 0.00 0.01 0.01 0.08 0.21 0.27 0.22 0.16 0.10
1.60 1.67 1.45 1.04 0.95 0.87 0.73 0.82 0.89 0.75 0.82 0.99 1.24 1.77 1.72 1.10 0.69 0.71 1.56 2.44 2.29 0.61 0.04 0.00 0.00 0.00 0.00 0.00 0.00 0.00 0.00 0.01 0.00 0.00 0.05 0.09 0.06 0.00 0.00 0.00 0.03 0.03 0.11 0.22 0.30 0.19 0.12
1.09 1.43 1.63 1.49 1.17 0.96 0.79 0.76 0.90 1.13 1.02 1.05 1.47 1.98 2.03 1.51 1.04 1.07 2.43 3.71 1.54 0.17 0.01 0.02 0.04 0.03 0.00 0.00 0.00 0.00 0.00 0.01 0.00 0.00 0.03 0.05 0.03 0.00 0.00 0.00 0.04 0.18 0.17 0.10 0.47 0.46 0.49
1.06 1.13 1.44 1.49 1.65 1.40 1.09 0.75 0.85 1.15 1.55 1.84 2.40 2.71 1.93 1.25 1.65 2.81 4.28 2.43 0.39 0.07 0.00 0.03 0.14 0.20 0.01 0.01 0.02 0.01 0.02 0.03 0.04 0.02 0.00 0.06 0.13 0.02 0.00 0.01 0.01 0.10 0.24 0.67 1.01 0.87 0.41
1.44 1.10 1.16 1.39 1.44 1.79 1.78 1.38 1.00 1.16 1.57 2.28 3.21 3.55 1.90 1.26 3.19 5.67 5.13 1.97 0.39 0.04 0.03 0.08 0.11 0.10 0.03 0.02 0.03 0.06 0.10 0.16 0.11 0.09 0.05 0.05 0.11 0.08 0.05 0.03 0.05 0.11 0.33 0.62 0.81 0.50 0.56
1.75 1.64 1.43 1.61 1.23 1.51 1.83 2.27 1.66 1.50 2.02 3.14 4.36 3.64 1.65 2.32 4.68 4.80 2.51 0.72 0.26 0.09 0.06 0.11 0.09 0.05 0.04 0.02 0.02 0.03 0.05 0.12 0.05 0.07 0.17 0.22 0.28 0.12 0.02 0.00 0.02 0.09 0.17 0.49 1.14 0.98 0.84
1.60 1.67 1.68 2.27 1.73 1.56 1.49 1.95 2.63 2.19 2.74 3.58 4.56 3.05 2.38 3.10 4.05 2.47 1.02 0.33 0.18 0.09 0.11 0.24 0.14 0.04 0.02 0.02 0.05 0.05 0.08 0.11 0.07 0.10 0.23 0.33 0.63 0.53 0.27 0.22 0.13 0.12 0.18 0.35 0.64 0.97 0.88
1.86 1.38 1.47 1.96 2.09 1.83 1.78 1.74 2.18 3.06 3.34 4.06 4.92 3.90 4.57 4.35 2.30 1.26 1.12 0.66 0.42 0.21 0.20 0.27 0.22 0.12 0.10 0.10 0.07 0.07 0.13 0.14 0.15 0.21 0.36 0.50 0.48 0.53 0.47 0.38 0.44 0.35 0.22 0.33 0.97 1.51 0.94
2.08 1.71 1.55 1.71 1.87 1.96 2.04 2.12 2.08 2.59 3.82 5.48 6.33 3.43 2.09 3.16 2.05 1.00 0.77 0.69 0.46 0.52 0.46 0.28 0.66 0.45 0.30 0.26 0.19 0.17 0.24 0.22 0.24 0.33 0.53 0.87 0.84 0.60 0.39 0.29 0.34 0.42 0.32 0.26 0.49 0.61 0.97
2.25 1.85 1.56 1.59 1.57 2.12 2.31 2.20 2.18 2.56 4.33 6.64 5.89 2.24 1.19 0.69 0.68 0.93 1.11 0.91 0.51 0.40 0.44 0.49 0.52 0.20 0.25 0.34 0.24 0.30 0.40 0.45 0.42 0.39 0.59 0.94 0.95 0.66 0.42 0.40 0.33 0.25 0.11 0.25 0.36 0.39 0.53
1.90 1.69 1.48 1.30 1.39 1.63 2.16 2.15 2.16 2.71 4.98 7.83 4.79 1.49 1.37 1.31 0.68 1.01 0.93 0.57 0.58 0.54 0.49 0.34 0.38 0.38 0.35 0.36 0.34 0.33 0.31 0.33 0.38 0.47 0.66 0.77 0.92 0.85 0.53 0.31 0.59 0.48 0.08 0.12 0.20 0.36 0.59
1.43 1.28 1.35 1.22 1.13 1.11 1.49 1.88 2.02 2.56 3.92 4.45 3.12 1.85 2.14 1.72 1.11 0.66 0.32 0.30 0.30 0.41 0.55 0.41 0.47 0.74 0.38 0.20 0.33 0.44 0.46 0.32 0.31 0.30 0.43 0.77 0.80 1.14 0.81 0.48 1.05 0.26 0.17 0.27 0.28 0.45 0.54
1.23 1.23 1.20 1.34 1.23 0.98 1.11 1.57 1.71 2.16 2.77 2.73 2.53 2.20 2.54 1.92 0.64 0.60 0.44 0.38 0.39 0.51 0.52 0.41 0.33 0.43 0.46 0.65 1.12 1.03 0.75 0.83 0.50 0.33 0.31 0.37 0.69 1.18 1.08 0.85 0.39 0.16 0.28 0.53 0.62 0.62 0.44
1.14 1.26 1.44 1.19 1.30 1.10 0.96 1.27 1.45 1.69 2.43 2.25 2.05 2.00 3.00 2.57 1.12 0.35 0.43 0.47 0.58 0.59 0.79 0.56 0.61 0.49 0.64 1.22 1.60 1.20 0.79 0.58 0.45 0.42 0.26 0.46 0.64 1.25 0.97 1.09 0.70 0.73 0.26 0.21 0.62 0.72 0.31
1.34 1.32 1.65 1.49 1.09 1.20 0.96 1.07 1.28 1.35 1.77 2.13 1.90 1.67 3.18 3.61 1.09 0.59 0.65 0.63 0.57 0.60 0.86 0.72 0.96 0.99 1.02 1.49 1.75 1.48 0.74 0.32 0.60 0.84 0.62 0.62 0.90 1.10 0.83 1.00 0.73 0.47 0.26 0.36 0.75 0.75 0.25
1.51 1.49 1.39 1.57 1.34 1.14 0.99 0.89 1.25 1.32 1.50 2.07 1.73 1.49 2.49 3.00 1.17 0.85 0.60 0.66 0.59 0.62 0.91 0.91 1.49 1.50 1.40 1.35 1.10 1.00 0.97 0.47 0.70 1.13 0.67 0.80 0.89 0.96 1.20 1.65 1.02 0.12 0.30 0.64 0.83 0.46 0.31
1.50 1.41 1.22 1.12 1.60 1.24 1.02 0.96 1.37 1.66 1.69 2.07 1.98 1.39 1.91 2.88 1.59 0.83 0.51 0.43 0.35 0.34 0.47 0.72 1.06 1.11 1.31 1.13 0.71 0.64 0.67 0.60 0.68 0.91 0.88 1.45 1.19 1.27 1.00 0.97 0.56 0.30 0.43 0.49 0.41 0.42 0.44

GFSGBSN_prec_precacc_171.txt.gz
Total_Precipitation_Accumulation
1.10 1.07 1.13 0.90 0.59 0.36 0.15 0.10 0.07 0.05 0.04 0.04 0.04 0.03 0.03 0.04 0.03 0.04 0.03 0.03 0.02 0.02 0.02 0.01 0.01 0.02 0.00 0.00 0.00 0.00 0.00 0.00 0.00 0.00 0.00 0.00 0.00 0.00 0.00 0.00 0.00 0.00 0.00 0.00 0.00 0.00 0.03
1.85 1.61 1.53 1.59 1.45 0.96 0.58 0.31 0.13 0.08 0.08 0.14 0.17 0.16 0.14 0.12 0.10 0.08 0.05 0.03 0.02 0.03 0.02 0.02 0.01 0.02 0.00 0.00 0.00 0.00 0.00 0.00 0.00 0.00 0.00 0.00 0.00 0.00 0.00 0.00 0.00 0.00 0.00 0.00 0.00 0.00 0.01
2.24 2.09 1.90 1.76 1.82 1.92 1.73 1.26 0.83 0.64 0.69 0.73 0.55 0.43 0.31 0.21 0.15 0.12 0.08 0.04 0.03 0.04 0.03 0.02 0.02 0.02 0.00 0.00 0.00 0.00 0.00 0.00 0.00 0.00 0.00 0.00 0.00 0.00 0.00 0.00 0.00 0.00 0.00 0.00 0.00 0.00 0.02
1.71 2.03 2.12 2.04 1.83 1.89 1.97 1.94 1.70 1.46 1.28 1.13 0.96 0.68 0.44 0.29 0.21 0.18 0.16 0.11 0.09 0.07 0.05 0.04 0.02 0.02 0.00 0.00 0.00 0.00 0.00 0.00 0.00 0.00 0.00 0.00 0.00 0.00 0.00 0.00 0.00 0.00 0.00 0.01 0.01 0.00 0.01
0.96 1.14 1.47 1.72 1.82 1.72 1.78 1.98 1.94 1.66 1.22 0.99 0.81 0.66 0.53 0.34 0.24 0.20 0.18 0.17 0.16 0.14 0.08 0.04 0.02 0.01 0.00 0.00 0.00 0.00 0.00 0.00 0.00 0.00 0.00 0.00 0.00 0.00 0.00 0.00 0.00 0.00 0.00 0.00 0.01 0.01 0.01
0.95 0.93 1.00 1.09 1.17 1.21 1.20 1.31 1.63 1.81 1.69 1.15 0.82 0.58 0.46 0.40 0.30 0.27 0.26 0.25 0.21 0.11 0.05 0.02 0.04 0.01 0.00 0.00 0.00 0.00 0.00 0.00 0.00 0.00 0.00 0.00 0.00 0.00 0.00 0.00 0.01 0.00 0.00 0.00 0.00 0.00 0.00
1.05 0.96 0.94 0.86 0.82 0.83 0.91 0.95 0.86 1.12 1.45 1.60 1.30 0.84 0.57 0.50 0.47 0.38 0.30 0.22 0.18 0.11 0.06 0.01 0.01 0.00 0.00 0.00 0.00 0.00 0.00 0.00 0.00 0.01 0.00 0.00 0.00 0.00 0.00 0.00 0.00 0.00 0.00 0.00 0.00 0.00 0.00
1.10 0.91 0.93 0.96 0.89 0.79 0.73 0.87 0.89 0.74 0.93 1.27 1.46 1.40 0.97 0.61 0.46 0.35 0.21 0.19 0.11 0.12 0.09 0.02 0.02 0.02 0.00 0.00 0.01 0.00 0.00 0.00 0.01 0.05 0.03 0.01 0.01 0.00 0.00 0.00 0.00 0.00 0.00 0.00 0.00 0.00 0.00
1.11 0.92 0.83 0.85 0.86 0.92 0.92 0.94 0.92 0.85 0.67 0.86 1.31 1.66 1.90 1.58 1.11 0.85 0.44 0.16 0.03 0.02 0.11 0.01 0.00 0.00 0.00 0.02 0.04 0.00 0.00 0.00 0.01 0.04 0.09 0.04 0.01 0.00 0.01 0.03 0.02 0.01 0.00 0.00 0.00 0.00 0.00
1.42 1.24 1.14 1.04 0.94 0.91 1.01 0.95 0.85 0.88 0.85 0.75 0.93 1.56 2.32 2.95 2.70 0.89 0.61 0.29 0.17 0.13 0.77 0.12 0.00 0.00 0.00 0.00 0.01 0.00 0.00 0.00 0.01 0.03 0.08 0.14 0.02 0.02 0.02 0.02 0.01 0.04 0.00 0.01 0.01 0.02 0.05
1.64 1.54 1.48 1.38 1.33 1.30 1.14 1.04 1.09 1.02 1.01 0.96 0.99 1.09 1.89 2.50 1.99 0.70 0.34 0.23 0.32 0.76 2.18 0.12 0.00 0.00 0.00 0.00 0.00 0.00 0.00 0.00 0.02 0.02 0.11 0.10 0.04 0.06 0.05 0.02 0.02 0.04 0.01 0.03 0.02 0.02 0.05
1.46 1.36 1.34 1.43 1.19 1.16 1.31 1.25 1.07 1.04 1.13 1.31 1.28 1.21 1.44 2.66 2.11 0.75 0.54 0.90 1.84 3.24 2.36 0.04 0.00 0.00 0.00 0.00 0.00 0.00 0.00 0.00 0.01 0.17 0.13 0.04 0.06 0.04 0.03 0.01 0.04 0.04 0.05 0.02 0.01 0.06 0.20
1.79 1.61 1.34 1.15 1.13 1.02 1.05 1.15 1.10 1.13 1.19 1.24 1.49 1.63 1.58 1.41 1.81 0.80 0.87 2.30 4.15 3.32 0.50 0.03 0.00 0.00 0.00 0.00 0.00 0.00 0.00 0.00 0.02 0.08 0.07 0.04 0.07 0.02 0.00 0.01 0.01 0.08 0.21 0.27 0.22 0.16 0.10
1.62 1.69 1.47 1.06 0.95 0.89 0.77 0.86 0.92 0.77 0.86 1.07 1.30 1.88 2.06 1.49 0.90 1.02 2.42 3.71 3.55 0.98 0.07 0.01 0.00 0.00 0.00 0.00 0.00 0.00 0.00 0.01 0.00 0.00 0.05 0.09 0.06 0.00 0.00 0.00 0.03 0.03 0.11 0.22 0.30 0.19 0.12
1.11 1.45 1.66 1.51 1.18 0.97 0.82 0.80 0.94 1.17 1.07 1.13 1.63 2.21 2.31 2.17 1.35 1.29 3.12 5.11 2.52 0.30 0.01 0.02 0.04 0.03 0.00 0.00 0.00 0.00 0.00 0.01 0.00 0.00 0.03 0.05 0.03 0.00 0.00 0.00 0.04 0.18 0.17 0.10 0.47 0.46 0.49
1.08 1.15 1.46 1.51 1.68 1.41 1.11 0.80 0.91 1.23 1.65 1.94 2.59 3.00 2.27 1.53 2.14 3.31 4.92 3.28 0.86 0.13 0.01 0.03 0.15 0.20 0.01 0.01 0.02 0.01 0.02 0.03 0.04 0.02 0.00 0.06 0.13 0.02 0.00 0.01 0.01 0.10 0.24 0.67 1.01 0.87 0.41
1.46 1.12 1.18 1.42 1.48 1.82 1.80 1.43 1.08 1.27 1.71 2.47 3.46 4.01 2.23 1.46 3.84 6.69 5.94 2.62 0.69 0.09 0.03 0.10 0.12 0.10 0.03 0.02 0.03 0.06 0.10 0.16 0.11 0.09 0.05 0.05 0.11 0.08 0.05 0.03 0.05 0.11 0.33 0.62 0.81 0.50 0.56
1.77 1.66 1.44 1.63 1.26 1.54 1.86 2.30 1.72 1.62 2.22 3.51 4.86 4.00 1.97 2.64 5.65 5.63 3.15 0.96 0.40 0.10 0.07 0.15 0.13 0.06 0.04 0.02 0.02 0.03 0.05 0.12 0.05 0.07 0.17 0.22 0.28 0.12 0.02 0.00 0.02 0.09 0.17 0.49 1.14 0.98 0.84
1.64 1.70 1.70 2.29 1.76 1.61 1.53 1.98 2.69 2.29 3.02 4.10 5.24 3.34 2.67 3.57 4.73 3.06 1.38 0.54 0.26 0.13 0.11 0.26 0.16 0.05 0.03 0.03 0.06 0.05 0.08 0.11 0.07 0.10 0.23 0.33 0.63 0.54 0.27 0.22 0.13 0.12 0.18 0.35 0.64 0.97 0.88
1.90 1.42 1.50 1.99 2.12 1.86 1.84 1.81 2.25 3.16 3.60 4.63 5.61 4.42 4.87 4.95 2.72 1.65 1.33 0.80 0.52 0.24 0.23 0.33 0.25 0.12 0.11 0.13 0.07 0.07 0.13 0.14 0.15 0.21 0.36 0.50 0.48 0.53 0.47 0.38 0.44 0.35 0.22 0.33 0.97 1.51 0.95
2.21 1.77 1.58 1.75 1.90 1.98 2.09 2.19 2.17 2.73 4.03 6.13 7.26 4.01 2.39 3.52 2.42 1.25 0.92 0.75 0.48 0.56 0.50 0.33 0.70 0.48 0.31 0.29 0.21 0.18 0.24 0.22 0.24 0.33 0.53 0.87 0.84 0.60 0.39 0.29 0.34 0.42 0.32 0.26 0.49 0.61 0.97
2.56 1.97 1.60 1.65 1.63 2.16 2.38 2.27 2.26 2.69 4.59 7.50 6.79 2.70 1.40 0.78 0.77 1.03 1.23 1.02 0.54 0.42 0.48 0.55 0.53 0.21 0.25 0.36 0.25 0.31 0.40 0.45 0.42 0.39 0.59 0.94 0.96 0.66 0.42 0.40 0.33 0.25 0.11 0.25 0.36 0.39 0.53
2.31 1.88 1.57 1.38 1.49 1.72 2.30 2.32 2.27 2.87 5.43 8.84 5.62 1.78 1.47 1.40 0.73 1.10 1.06 0.69 0.63 0.55 0.50 0.35 0.38 0.38 0.35 0.36 0.34 0.33 0.32 0.33 0.39 0.47 0.67 0.79 0.96 0.88 0.55 0.31 0.59 0.48 0.08 0.12 0.20 0.36 0.59
2.03 1.73 1.65 1.40 1.34 1.25 1.72 2.16 2.17 2.80 4.37 5.26 3.70 2.01 2.25 1.83 1.16 0.71 0.39 0.33 0.30 0.42 0.57 0.43 0.48 0.75 0.39 0.20 0.33 0.46 0.49 0.37 0.33 0.31 0.43 0.78 0.81 1.21 0.93 0.54 1.15 0.27 0.17 0.27 0.28 0.45 0.54
1.83 1.87 1.65 1.69 1.58 1.15 1.27 1.76 1.84 2.37 3.20 3.20 3.01 2.36 2.67 1.99 0.70 0.64 0.47 0.43 0.45 0.59 0.62 0.47 0.37 0.44 0.47 0.66 1.17 1.22 1.02 1.07 0.70 0.43 0.37 0.42 0.76 1.38 1.35 1.05 0.46 0.16 0.28 0.53 0.62 0.62 0.44
1.62 1.80 1.95 1.73 1.71 1.30 1.16 1.45 1.64 1.95 2.85 2.62 2.49 2.29 3.12 2.70 1.19 0.39 0.50 0.52 0.72 0.79 1.06 0.76 0.68 0.53 0.71 1.33 1.76 1.47 1.03 0.73 0.56 0.56 0.40 0.61 0.79 1.44 1.27 1.33 0.86 0.75 0.26 0.21 0.62 0.73 0.31
1.49 1.64 2.11 1.99 1.50 1.46 1.24 1.31 1.50 1.58 2.10 2.43 2.16 1.87 3.34 3.75 1.28 0.65 0.73 0.82 0.71 0.75 1.04 0.95 1.12 1.11 1.11 1.59 1.89 1.60 0.84 0.35 0.63 0.85 0.66 0.74 1.09 1.33 1.05 1.16 0.78 0.47 0.26 0.36 0.77 0.76 0.25
1.53 1.53 1.45 1.73 1.60 1.38 1.23 1.12 1.36 1.40 1.61 2.25 1.87 1.57 2.58 3.18 1.41 0.98 0.65 0.71 0.71 0.72 1.00 1.10 1.63 1.69 1.61 1.51 1.22 1.11 1.03 0.50 0.71 1.14 0.67 0.82 0.94 1.07 1.33 1.77 1.07 0.12 0.30 0.64 0.83 0.46 0.31
1.50 1.41 1.23 1.13 1.64 1.31 1.13 1.10 1.44 1.70 1.72 2.11 2.05 1.44 1.97 3.00 1.84 0.95 0.60 0.49 0.41 0.39 0.52 0.78 1.11 1.16 1.38 1.21 0.79 0.70 0.70 0.60 0.68 0.91 0.88 1.45 1.20 1.28 1.00 0.98 0.56 0.30 0.43 0.49 0.41 0.42 0.44

GFSGBSN_prec_precacc_174.txt.gz
Total_Precipitation_Accumulation
1.11 1.09 1.17 1.03 0.84 0.54 0.30 0.20 0.09 0.05 0.04 0.04 0.04 0.03 0.03 0.04 0.03 0.04 0.03 0.03 0.02 0.02 0.02 0.01 0.01 0.02 0.00 0.00 0.00 0.00 0.00 0.00 0.00 0.00 0.00 0.00 0.00 0.00 0.00 0.00 0.00 0.00 0.00 0.00 0.00 0.00 0.03
1.86 1.61 1.55 1.66 1.57 1.24 0.82 0.50 0.28 0.12 0.08 0.14 0.17 0.16 0.14 0.12 0.10 0.08 0.05 0.03 0.02 0.03 0.02 0.02 0.01 0.02 0.00 0.00 0.00 0.00 0.00 0.00 0.00 0.00 0.00 0.00 0.00 0.00 0.00 0.00 0.00 0.00 0.00 0.00 0.00 0.00 0.01
2.24 2.09 1.91 1.78 1.94 2.04 2.03 1.55 1.05 0.81 0.73 0.73 0.55 0.43 0.31 0.21 0.15 0.12 0.08 0.04 0.03 0.04 0.03 0.02 0.02 0.02 0.00 0.00 0.00 0.00 0.00 0.00 0.00 0.00 0.00 0.00 0.00 0.00 0.00 0.00 0.00 0.00 0.00 0.00 0.00 0.00 0.02
1.71 2.03 2.12 2.05 1.85 2.01 2.12 2.22 2.01 1.66 1.43 1.16 0.96 0.68 0.44 0.29 0.21 0.18 0.16 0.11 0.09 0.07 0.05 0.04 0.02 0.02 0.00 0.00 0.00 0.00 0.00 0.00 0.00 0.00 0.00 0.00 0.00 0.00 0.00 0.00 0.00 0.00 0.00 0.01 0.01 0.00 0.01
0.96 1.14 1.47 1.72 1.83 1.73 1.91 2.17 2.21 1.94 1.47 1.16 0.84 0.66 0.53 0.34 0.24 0.20 0.18 0.17 0.16 0.14 0.08 0.04 0.02 0.01 0.00 0.00 0.00 0.00 0.00 0.00 0.00 0.00 0.00 0.00 0.00 0.00 0.00 0.00 0.00 0.00 0.00 0.00 0.01 0.01 0.01
0.95 0.93 1.00 1.09 1.17 1.22 1.22 1.46 1.85 2.04 2.00 1.50 1.08 0.64 0.46 0.40 0.30 0.27 0.26 0.25 0.21 0.11 0.05 0.02 0.04 0.01 0.00 0.00 0.00 0.00 0.00 0.00 0.00 0.00 0.00 0.00 0.00 0.00 0.00 0.00 0.01 0.00 0.00 0.00 0.00 0.00 0.00
1.05 0.96 0.94 0.86 0.82 0.83 0.91 0.96 1.00 1.37 1.65 1.92 1.72 1.21 0.67 0.50 0.47 0.38 0.30 0.23 0.18 0.12 0.07 0.01 0.01 0.00 0.00 0.00 0.00 0.00 0.00 0.00 0.00 0.01 0.00 0.00 0.00 0.00 0.00 0.00 0.00 0.00 0.00 0.00 0.00 0.00 0.00
1.10 0.91 0.93 0.96 0.89 0.79 0.73 0.88 0.91 0.88 1.15 1.46 1.76 1.84 1.56 0.80 0.47 0.36 0.21 0.19 0.11 0.12 0.09 0.02 0.02 0.02 0.00 0.00 0.01 0.00 0.00 0.00 0.01 0.05 0.03 0.01 0.01 0.00 0.00 0.00 0.00 0.00 0.00 0.00 0.00 0.00 0.00
1.11 0.92 0.83 0.85 0.87 0.92 0.93 0.95 0.92 0.88 0.79 1.05 1.52 2.00 2.42 2.45 1.49 0.92 0.45 0.16 0.03 0.02 0.11 0.01 0.00 0.00 0.00 0.02 0.04 0.00 0.00 0.00 0.01 0.04 0.09 0.04 0.01 0.00 0.01 0.03 0.02 0.01 0.00 0.00 0.00 0.00 0.00
1.42 1.24 1.15 1.04 0.94 0.91 1.01 0.96 0.86 0.89 0.88 0.85 1.12 1.80 2.74 3.75 4.00 1.33 0.67 0.29 0.17 0.13 0.77 0.12 0.00 0.00 0.00 0.00 0.01 0.00 0.00 0.00 0.01 0.03 0.08 0.14 0.02 0.02 0.02 0.02 0.01 0.04 0.00 0.01 0.01 0.02 0.05
1.65 1.55 1.49 1.38 1.33 1.30 1.15 1.05 1.09 1.02 1.02 0.99 1.09 1.30 2.30 3.13 2.82 1.14 0.43 0.25 0.33 0.76 2.22 0.13 0.00 0.00 0.00 0.00 0.00 0.00 0.00 0.00 0.02 0.02 0.11 0.10 0.04 0.06 0.05 0.02 0.02 0.04 0.01 0.03 0.02 0.02 0.05
1.48 1.36 1.34 1.43 1.20 1.16 1.31 1.25 1.08 1.04 1.13 1.32 1.31 1.35 1.80 3.37 2.82 1.00 0.61 1.11 2.00 3.43 2.55 0.05 0.00 0.00 0.00 0.00 0.00 0.00 0.00 0.00 0.01 0.17 0.13 0.04 0.06 0.04 0.03 0.01 0.04 0.04 0.05 0.02 0.01 0.06 0.20
1.80 1.62 1.35 1.15 1.14 1.02 1.05 1.15 1.10 1.14 1.20 1.26 1.52 1.68 1.85 1.96 2.49 1.17 1.07 2.61 4.57 3.73 0.65 0.04 0.01 0.00 0.00 0.00 0.00 0.00 0.00 0.00 0.02 0.08 0.07 0.04 0.07 0.02 0.00 0.01 0.01 0.08 0.21 0.27 0.22 0.16 0.10
1.63 1.70 1.48 1.06 0.96 0.89 0.77 0.86 0.92 0.77 0.87 1.08 1.35 1.92 2.15 2.01 1.50 1.41 2.81 4.15 4.06 1.07 0.08 0.01 0.00 0.00 0.00 0.00 0.00 0.00 0.00 0.01 0.00 0.00 0.05 0.09 0.06 0.00 0.00 0.00 0.03 0.03 0.11 0.22 0.30 0.19 0.12
1.13 1.46 1.66 1.52 1.18 0.98 0.82 0.80 0.94 1.18 1.07 1.14 1.74 2.29 2.36 2.48 2.21 1.82 3.57 5.73 2.97 0.33 0.01 0.02 0.04 0.04 0.01 0.00 0.00 0.00 0.00 0.01 0.00 0.00 0.03 0.05 0.03 0.00 0.00 0.00 0.04 0.18 0.17 0.10 0.47 0.46 0.49
1.10 1.16 1.47 1.52 1.68 1.41 1.11 0.81 0.92 1.24 1.65 1.97 2.69 3.30 2.35 1.62 2.71 4.08 5.43 3.75 1.05 0.13 0.01 0.03 0.15 0.21 0.01 0.01 0.02 0.01 0.02 0.03 0.04 0.02 0.00 0.06 0.13 0.02 0.00 0.01 0.01 0.10 0.24 0.67 1.01 0.87 0.41
1.50 1.14 1.19 1.42 1.48 1.82 1.80 1.43 1.09 1.28 1.71 2.51 3.56 4.39 2.40 1.48 4.18 7.46 6.68 3.14 0.80 0.09 0.03 0.10 0.12 0.10 0.03 0.02 0.03 0.06 0.10 0.16 0.11 0.09 0.05 0.05 0.11 0.08 0.05 0.03 0.05 0.11 0.33 0.62 0.81 0.50 0.56
1.84 1.68 1.46 1.64 1.27 1.54 1.86 2.30 1.73 1.63 2.24 3.59 5.08 4.28 2.16 2.70 6.04 6.29 3.84 1.38 0.46 0.11 0.08 0.16 0.13 0.06 0.04 0.02 0.02 0.03 0.05 0.12 0.05 0.07 0.17 0.22 0.28 0.12 0.02 0.00 0.02 0.09 0.17 0.49 1.14 0.98 0.84
1.66 1.71 1.71 2.30 1.77 1.61 1.53 1.98 2.70 2.31 3.05 4.19 5.54 3.59 2.92 3.77 4.92 3.47 1.84 0.79 0.31 0.14 0.16 0.27 0.16 0.05 0.03 0.03 0.06 0.05 0.08 0.11 0.07 0.10 0.23 0.33 0.63 0.54 0.27 0.22 0.13 0.12 0.18 0.35 0.64 0.97 0.88
1.95 1.44 1.51 2.00 2.13 1.87 1.84 1.81 2.25 3.17 3.62 4.78 5.84 4.73 5.06 5.64 2.85 1.77 1.60 0.98 0.63 0.28 0.27 0.34 0.25 0.12 0.11 0.13 0.07 0.07 0.13 0.14 0.15 0.21 0.36 0.50 0.48 0.53 0.47 0.38 0.44 0.35 0.22 0.33 0.97 1.51 0.95
2.44 1.88 1.62 1.77 1.92 1.99 2.09 2.20 2.17 2.74 4.06 6.29 7.69 4.27 2.59 3.87 2.80 1.29 1.01 0.86 0.55 0.62 0.54 0.35 0.73 0.49 0.32 0.29 0.21 0.18 0.24 0.22 0.24 0.33 0.53 0.87 0.84 0.60 0.39 0.29 0.34 0.42 0.32 0.26 0.49 0.61 0.97
2.65 2.17 1.76 1.70 1.65 2.17 2.38 2.28 2.27 2.72 4.66 7.63 7.26 2.97 1.52 0.88 0.97 1.10 1.27 1.13 0.61 0.45 0.51 0.58 0.55 0.22 0.25 0.36 0.26 0.31 0.40 0.45 0.42 0.39 0.59 0.94 0.96 0.66 0.42 0.40 0.33 0.25 0.11 0.25 0.36 0.39 0.53
2.34 1.94 1.69 1.47 1.51 1.73 2.31 2.34 2.29 2.91 5.53 9.08 5.94 2.02 1.59 1.50 0.78 1.23 1.11 0.74 0.75 0.60 0.52 0.35 0.39 0.38 0.35 0.36 0.35 0.33 0.32 0.33 0.39 0.48 0.68 0.80 0.96 0.89 0.57 0.31 0.60 0.50 0.08 0.12 0.20 0.36 0.59
2.07 1.81 1.73 1.47 1.38 1.27 1.73 2.19 2.19 2.83 4.46 5.55 3.88 2.19 2.55 1.97 1.21 0.77 0.44 0.35 0.33 0.50 0.59 0.44 0.49 0.76 0.39 0.20 0.34 0.47 0.49 0.37 0.34 0.31 0.44 0.80 0.83 1.25 0.97 0.58 1.21 0.30 0.17 0.27 0.28 0.45 0.54
2.12 2.26 1.84 1.78 1.63 1.17 1.29 1.80 1.88 2.41 3.31 3.37 3.10 2.42 2.91 2.23 0.76 0.66 0.48 0.44 0.46 0.61 0.68 0.50 0.37 0.44 0.47 0.66 1.18 1.25 1.06 1.12 0.75 0.46 0.37 0.42 0.77 1.46 1.44 1.12 0.48 0.16 0.28 0.53 0.62 0.62 0.44
1.71 1.94 2.09 1.84 1.76 1.35 1.20 1.51 1.69 2.00 2.96 2.74 2.53 2.38 3.28 2.91 1.28 0.41 0.51 0.52 0.73 0.81 1.14 0.87 0.72 0.54 0.71 1.36 1.84 1.54 1.08 0.76 0.60 0.62 0.43 0.62 0.79 1.45 1.34 1.40 0.88 0.75 0.26 0.21 0.62 0.73 0.31
1.58 1.84 2.38 2.12 1.53 1.52 1.29 1.35 1.54 1.62 2.16 2.50 2.20 1.97 3.62 4.00 1.38 0.68 0.74 0.84 0.72 0.78 1.11 1.03 1.18 1.14 1.12 1.62 1.96 1.66 0.88 0.36 0.63 0.85 0.66 0.74 1.09 1.37 1.10 1.23 0.79 0.47 0.26 0.36 0.77 0.76 0.25
1.55 1.58 1.66 2.02 1.77 1.47 1.28 1.16 1.39 1.42 1.63 2.31 1.91 1.61 2.88 3.39 1.53 1.00 0.67 0.72 0.71 0.72 1.03 1.17 1.69 1.78 1.68 1.56 1.26 1.15 1.06 0.50 0.71 1.14 0.67 0.82 0.94 1.08 1.36 1.84 1.12 0.12 0.30 0.65 0.83 0.46 0.31
1.51 1.43 1.28 1.25 1.82 1.53 1.30 1.21 1.50 1.72 1.74 2.16 2.13 1.49 2.08 3.23 1.97 0.98 0.61 0.49 0.42 0.40 0.53 0.80 1.14 1.19 1.40 1.24 0.82 0.72 0.71 0.60 0.68 0.91 0.88 1.45 1.20 1.28 1.01 0.99 0.57 0.30 0.43 0.49 0.41 0.42 0.44

GFSGBSN_prec_precacc_177.txt.gz
Total_Precipitation_Accumulation
1.11 1.09 1.21 1.20 1.15 0.81 0.47 0.33 0.22 0.09 0.04 0.04 0.04 0.03 0.03 0.04 0.03 0.04 0.03 0.03 0.02 0.02 0.02 0.01 0.01 0.02 0.00 0.00 0.00 0.00 0.00 0.00 0.00 0.00 0.00 0.00 0.00 0.00 0.00 0.00 0.00 0.00 0.00 0.00 0.00 0.00 0.03
1.86 1.61 1.55 1.70 1.76 1.60 1.14 0.70 0.40 0.23 0.12 0.15 0.17 0.16 0.14 0.12 0.10 0.08 0.05 0.03 0.02 0.03 0.02 0.02 0.01 0.02 0.00 0.00 0.00 0.00 0.00 0.00 0.00 0.00 0.00 0.00 0.00 0.00 0.00 0.00 0.00 0.00 0.00 0.00 0.00 0.00 0.01
2.24 2.09 1.91 1.79 1.97 2.23 2.41 1.89 1.26 0.96 0.88 0.77 0.56 0.43 0.31 0.21 0.15 0.12 0.08 0.04 0.03 0.04 0.03 0.02 0.02 0.02 0.00 0.00 0.00 0.00 0.00 0.00 0.00 0.00 0.00 0.00 0.00 0.00 0.00 0.00 0.00 0.00 0.00 0.00 0.00 0.00 0.02
1.71 2.03 2.12 2.05 1.85 2.05 2.26 2.56 2.32 1.89 1.62 1.36 1.01 0.68 0.44 0.29 0.21 0.18 0.16 0.11 0.09 0.07 0.05 0.04 0.02 0.02 0.00 0.00 0.00 0.00 0.00 0.00 0.00 0.00 0.00 0.00 0.00 0.00 0.00 0.00 0.00 0.00 0.00 0.01 0.01 0.00 0.01
0.96 1.14 1.47 1.72 1.83 1.74 1.94 2.27 2.51 2.29 1.71 1.36 1.04 0.74 0.53 0.34 0.24 0.20 0.18 0.17 0.16 0.14 0.08 0.04 0.02 0.01 0.00 0.00 0.00 0.00 0.00 0.00 0.00 0.00 0.00 0.00 0.00 0.00 0.00 0.00 0.00 0.00 0.00 0.00 0.01 0.01 0.01
0.96 0.94 1.00 1.09 1.17 1.23 1.22 1.48 1.94 2.32 2.36 1.78 1.32 0.83 0.54 0.40 0.30 0.27 0.26 0.25 0.21 0.11 0.05 0.02 0.04 0.01 0.00 0.00 0.00 0.00 0.00 0.00 0.00 0.00 0.00 0.00 0.00 0.00 0.00 0.00 0.01 0.00 0.00 0.00 0.00 0.00 0.00
1.07 0.97 0.95 0.86 0.82 0.83 0.92 0.97 1.03 1.48 1.93 2.29 2.07 1.53 0.90 0.60 0.47 0.38 0.30 0.23 0.19 0.13 0.08 0.01 0.01 0.00 0.00 0.00 0.00 0.00 0.00 0.00 0.00 0.01 0.00 0.00 0.00 0.00 0.00 0.00 0.00 0.00 0.00 0.00 0.00 0.00 0.00
1.11 0.92 0.93 0.96 0.89 0.79 0.74 0.88 0.91 0.90 1.29 1.72 2.16 2.25 1.94 1.12 0.54 0.36 0.21 0.19 0.11 0.12 0.09 0.02 0.02 0.02 0.00 0.00 0.01 0.00 0.00 0.00 0.01 0.05 0.03 0.01 0.01 0.00 0.00 0.00 0.00 0.00 0.00 0.00 0.00 0.00 0.00
1.13 0.93 0.84 0.85 0.87 0.92 0.93 0.96 0.93 0.88 0.82 1.21 1.77 2.38 2.96 3.04 1.83 1.02 0.45 0.16 0.03 0.02 0.11 0.01 0.00 0.00 0.00 0.02 0.04 0.00 0.00 0.00 0.01 0.04 0.09 0.04 0.01 0.00 0.01 0.03 0.02 0.01 0.00 0.00 0.00 0.00 0.00
1.44 1.26 1.16 1.05 0.95 0.91 1.01 0.97 0.88 0.90 0.88 0.89 1.28 2.07 3.22 4.57 5.10 1.67 0.73 0.30 0.17 0.13 0.77 0.12 0.00 0.00 0.00 0.00 0.01 0.00 0.00 0.00 0.01 0.03 0.08 0.14 0.02 0.02 0.02 0.02 0.01 0.04 0.00 0.01 0.01 0.02 0.05
1.68 1.57 1.51 1.40 1.34 1.30 1.15 1.05 1.10 1.03 1.02 0.99 1.14 1.48 2.70 3.93 3.68 1.68 0.52 0.26 0.33 0.76 2.23 0.13 0.00 0.00 0.00 0.00 0.00 0.00 0.00 0.00 0.02 0.02 0.11 0.10 0.04 0.06 0.05 0.02 0.02 0.04 0.01 0.03 0.02 0.02 0.05
1.49 1.38 1.36 1.45 1.20 1.17 1.31 1.25 1.08 1.05 1.14 1.33 1.33 1.42 2.13 4.11 3.68 1.40 0.65 1.20 2.15 3.57 2.67 0.06 0.00 0.00 0.00 0.00 0.00 0.00 0.00 0.00 0.01 0.17 0.13 0.04 0.06 0.04 0.03 0.01 0.04 0.04 0.05 0.02 0.01 0.06 0.20
1.81 1.63 1.36 1.16 1.14 1.02 1.06 1.16 1.10 1.14 1.20 1.27 1.53 1.74 2.06 2.43 3.22 1.72 1.32 3.00 5.14 4.26 0.79 0.05 0.01 0.00 0.00 0.00 0.00 0.00 0.00 0.00 0.02 0.08 0.07 0.04 0.07 0.02 0.00 0.01 0.01 0.08 0.21 0.27 0.22 0.16 0.10
1.64 1.71 1.48 1.06 0.96 0.89 0.77 0.86 0.92 0.78 0.88 1.09 1.36 1.96 2.35 2.29 2.03 1.87 3.27 4.69 4.67 1.28 0.13 0.01 0.00 0.00 0.00 0.00 0.00 0.00 0.00 0.01 0.00 0.00 0.05 0.09 0.06 0.00 0.00 0.00 0.03 0.03 0.11 0.22 0.30 0.19 0.12
1.13 1.47 1.67 1.52 1.19 0.98 0.83 0.81 0.94 1.18 1.08 1.15 1.76 2.34 2.60 2.81 2.72 2.39 4.23 6.44 3.43 0.37 0.01 0.02 0.05 0.04 0.01 0.00 0.00 0.00 0.00 0.01 0.00 0.00 0.03 0.05 0.03 0.00 0.00 0.00 0.04 0.18 0.17 0.10 0.47 0.46 0.49
1.10 1.17 1.48 1.53 1.68 1.42 1.11 0.81 0.92 1.24 1.66 1.98 2.72 3.37 2.56 1.93 3.18 4.62 6.07 4.38 1.26 0.14 0.01 0.03 0.15 0.21 0.02 0.01 0.02 0.01 0.02 0.03 0.04 0.02 0.00 0.06 0.13 0.02 0.00 0.01 0.01 0.10 0.24 0.67 1.01 0.87 0.41
1.51 1.16 1.21 1.44 1.49 1.82 1.80 1.44 1.09 1.28 1.72 2.54 3.60 4.54 2.54 1.71 4.78 8.07 7.34 3.73 0.98 0.09 0.04 0.10 0.12 0.10 0.03 0.02 0.03 0.06 0.10 0.16 0.11 0.09 0.05 0.05 0.11 0.08 0.05 0.03 0.05 0.11 0.33 0.62 0.81 0.50 0.56
1.91 1.76 1.50 1.67 1.28 1.55 1.87 2.31 1.74 1.63 2.25 3.65 5.14 4.49 2.29 2.90 6.56 7.16 4.40 1.75 0.53 0.11 0.09 0.16 0.14 0.06 0.04 0.02 0.02 0.03 0.05 0.12 0.05 0.07 0.17 0.22 0.28 0.12 0.02 0.00 0.02 0.09 0.17 0.49 1.14 0.98 0.84
1.85 1.92 1.83 2.33 1.78 1.61 1.54 1.99 2.70 2.31 3.06 4.24 5.59 3.71 3.00 4.24 5.24 3.99 2.42 1.01 0.33 0.14 0.19 0.30 0.17 0.05 0.03 0.03 0.07 0.05 0.08 0.11 0.07 0.10 0.23 0.33 0.63 0.54 0.28 0.22 0.13 0.12 0.18 0.35 0.64 0.97 0.88
2.04 1.52 1.61 2.03 2.14 1.87 1.84 1.82 2.26 3.18 3.63 4.83 5.89 4.87 5.14 6.27 3.37 1.95 1.85 1.16 0.68 0.29 0.28 0.35 0.25 0.12 0.11 0.15 0.09 0.07 0.13 0.14 0.15 0.21 0.36 0.50 0.49 0.53 0.47 0.38 0.44 0.35 0.22 0.33 0.97 1.52 0.95
2.54 2.06 1.69 1.78 1.93 2.00 2.10 2.20 2.18 2.74 4.07 6.34 7.79 4.44 2.67 4.12 3.36 1.63 1.09 0.90 0.59 0.65 0.57 0.36 0.78 0.51 0.34 0.31 0.22 0.18 0.25 0.22 0.24 0.33 0.53 0.87 0.85 0.60 0.39 0.29 0.34 0.42 0.32 0.26 0.49 0.61 0.98
2.65 2.22 1.87 1.74 1.67 2.18 2.39 2.28 2.28 2.73 4.69 7.70 7.36 3.09 1.61 0.94 1.19 1.45 1.48 1.16 0.63 0.47 0.55 0.61 0.64 0.26 0.25 0.37 0.27 0.33 0.41 0.45 0.42 0.40 0.61 0.95 0.98 0.67 0.42 0.40 0.33 0.25 0.11 0.25 0.36 0.39 0.53
2.34 1.94 1.71 1.59 1.56 1.75 2.33 2.34 2.29 2.92 5.59 9.17 6.01 2.09 1.70 1.56 0.83 1.55 1.44 0.82 0.77 0.61 0.52 0.35 0.39 0.38 0.36 0.36 0.35 0.34 0.36 0.35 0.43 0.51 0.73 0.83 0.98 0.89 0.57 0.32 0.61 0.51 0.08 0.12 0.20 0.36 0.59
2.09 1.83 1.74 1.56 1.49 1.31 1.75 2.20 2.20 2.85 4.50 5.62 3.93 2.23 2.65 2.03 1.28 0.89 0.77 0.50 0.36 0.52 0.60 0.44 0.49 0.77 0.39 0.21 0.35 0.48 0.55 0.43 0.40 0.36 0.48 0.85 0.87 1.29 0.98 0.60 1.25 0.30 0.17 0.27 0.28 0.45 0.54
2.16 2.40 1.92 1.86 1.74 1.22 1.30 1.81 1.89 2.44 3.36 3.43 3.14 2.46 3.01 2.34 0.82 0.69 0.56 0.71 0.64 0.67 0.73 0.51 0.38 0.45 0.47 0.69 1.27 1.35 1.13 1.20 0.80 0.49 0.38 0.43 0.80 1.50 1.47 1.16 0.50 0.16 0.28 0.53 0.62 0.62 0.44
1.72 1.97 2.19 1.97 1.88 1.41 1.24 1.53 1.72 2.04 3.00 2.82 2.58 2.45 3.36 3.03 1.35 0.43 0.53 0.59 0.96 1.04 1.34 0.95 0.76 0.55 0.74 1.47 1.95 1.65 1.15 0.82 0.63 0.65 0.45 0.63 0.82 1.48 1.39 1.43 0.91 0.75 0.26 0.21 0.62 0.73 0.31
1.58 1.85 2.39 2.15 1.58 1.57 1.36 1.41 1.60 1.66 2.19 2.59 2.27 2.03 3.72 4.11 1.42 0.72 0.77 0.88 0.76 0.94 1.35 1.24 1.30 1.19 1.17 1.70 2.06 1.70 0.92 0.37 0.64 0.86 0.67 0.77 1.13 1.44 1.18 1.27 0.80 0.47 0.26 0.36 0.77 0.76 0.25
1.56 1.61 1.74 2.05 1.80 1.50 1.36 1.24 1.46 1.47 1.66 2.36 1.99 1.65 2.98 3.47 1.63 1.13 0.70 0.80 0.79 0.76 1.07 1.32 1.90 1.95 1.80 1.62 1.29 1.18 1.10 0.53 0.73 1.14 0.67 0.83 0.95 1.10 1.40 1.94 1.19 0.12 0.30 0.65 0.83 0.46 0.31
1.51 1.45 1.38 1.37 1.84 1.55 1.34 1.27 1.55 1.74 1.75 2.19 2.21 1.55 2.15 3.32 2.24 1.23 0.77 0.58 0.52 0.42 0.54 0.82 1.22 1.33 1.55 1.35 0.89 0.75 0.72 0.61 0.68 0.92 0.88 1.45 1.20 1.29 1.01 1.00 0.57 0.30 0.43 0.49 0.41 0.42 0.44

GFSGBSN_prec_precacc_183.txt.gz
Total_Precipitation_Accumulation
1.11 1.09 1.21 1.21 1.20 0.95 0.67 0.54 0.43 0.32 0.23 0.13 0.08 0.05 0.03 0.04 0.03 0.04 0.03 0.03 0.02 0.02 0.02 0.01 0.01 0.02 0.00 0.00 0.00 0.00 0.00 0.00 0.00 0.00 0.00 0.00 0.00 0.00 0.00 0.00 0.00 0.00 0.00 0.00 0.00 0.00 0.03
1.86 1.61 1.56 1.70 1.78 1.68 1.31 0.94 0.69 0.49 0.38 0.36 0.29 0.23 0.16 0.13 0.10 0.08 0.05 0.03 0.02 0.03 0.02 0.02 0.01 0.02 0.00 0.00 0.00 0.00 0.00 0.00 0.00 0.00 0.00 0.00 0.00 0.00 0.00 0.00 0.00 0.00 0.00 0.00 0.00 0.00 0.01
2.24 2.10 1.91 1.79 1.98 2.26 2.51 2.12 1.55 1.29 1.21 1.07 0.76 0.55 0.36 0.22 0.15 0.12 0.08 0.04 0.03 0.04 0.03 0.02 0.02 0.02 0.00 0.00 0.00 0.00 0.00 0.00 0.00 0.00 0.00 0.00 0.00 0.00 0.00 0.00 0.00 0.00 0.00 0.00 0.00 0.00 0.02
1.72 2.03 2.13 2.05 1.86 2.06 2.32 2.72 2.61 2.23 2.00 1.77 1.36 0.90 0.56 0.34 0.22 0.18 0.16 0.11 0.09 0.07 0.05 0.04 0.02 0.02 0.00 0.00 0.00 0.00 0.00 0.00 0.00 0.00 0.00 0.00 0.00 0.00 0.00 0.00 0.00 0.00 0.00 0.01 0.01 0.00 0.01
0.97 1.15 1.48 1.74 1.84 1.75 1.97 2.36 2.69 2.61 2.10 1.80 1.51 1.13 0.78 0.49 0.28 0.21 0.18 0.17 0.16 0.14 0.08 0.04 0.02 0.01 0.00 0.00 0.00 0.00 0.00 0.00 0.00 0.00 0.00 0.00 0.00 0.00 0.00 0.00 0.00 0.00 0.00 0.00 0.01 0.01 0.01
0.96 0.95 1.02 1.11 1.20 1.25 1.24 1.52 2.02 2.49 2.65 2.19 1.77 1.37 1.01 0.69 0.44 0.30 0.26 0.25 0.21 0.11 0.05 0.02 0.04 0.01 0.00 0.00 0.00 0.00 0.00 0.00 0.00 0.00 0.00 0.00 0.00 0.00 0.00 0.00 0.01 0.00 0.00 0.00 0.00 0.00 0.00
1.07 0.98 0.96 0.88 0.84 0.86 0.95 1.00 1.07 1.55 2.09 2.56 2.49 2.06 1.54 1.15 0.83 0.55 0.31 0.26 0.22 0.15 0.09 0.01 0.01 0.00 0.00 0.00 0.00 0.00 0.00 0.00 0.00 0.01 0.00 0.00 0.00 0.00 0.00 0.00 0.00 0.00 0.00 0.00 0.00 0.00 0.00
1.11 0.92 0.94 0.97 0.91 0.81 0.76 0.91 0.94 0.95 1.36 1.88 2.45 2.72 2.59 1.91 1.32 0.82 0.36 0.20 0.11 0.12 0.09 0.02 0.02 0.02 0.00 0.00 0.01 0.00 0.00 0.00 0.01 0.05 0.03 0.01 0.01 0.00 0.00 0.00 0.00 0.00 0.00 0.00 0.00 0.00 0.00
1.13 0.94 0.84 0.86 0.88 0.94 0.95 0.99 0.96 0.91 0.86 1.29 1.97 2.75 3.51 3.88 3.01 2.21 0.96 0.19 0.03 0.02 0.11 0.01 0.00 0.00 0.00 0.02 0.04 0.00 0.00 0.00 0.01 0.04 0.09 0.04 0.01 0.00 0.01 0.03 0.02 0.01 0.00 0.00 0.00 0.00 0.00
1.44 1.26 1.16 1.06 0.96 0.93 1.04 1.00 0.90 0.92 0.92 0.92 1.38 2.33 3.71 5.47 6.71 3.08 1.62 0.40 0.17 0.14 0.78 0.12 0.00 0.00 0.00 0.00 0.01 0.00 0.00 0.00 0.01 0.03 0.08 0.14 0.02 0.02 0.02 0.02 0.01 0.04 0.00 0.01 0.01 0.02 0.05
1.68 1.57 1.51 1.40 1.36 1.33 1.18 1.08 1.13 1.06 1.06 1.04 1.19 1.62 3.10 4.95 4.85 2.79 1.06 0.41 0.39 0.83 2.30 0.13 0.00 0.00 0.00 0.00 0.00 0.00 0.00 0.00 0.02 0.02 0.11 0.10 0.04 0.06 0.05 0.02 0.02 0.04 0.01 0.03 0.02 0.02 0.05
1.50 1.39 1.37 1.45 1.21 1.18 1.34 1.28 1.11 1.08 1.17 1.37 1.40 1.51 2.45 5.02 4.84 2.10 0.96 1.75 3.05 4.56 3.17 0.06 0.00 0.00 0.00 0.00 0.00 0.00 0.00 0.00 0.01 0.17 0.13 0.04 0.06 0.04 0.03 0.01 0.04 0.04 0.05 0.02 0.01 0.06 0.20
1.81 1.64 1.36 1.17 1.15 1.03 1.07 1.18 1.13 1.17 1.24 1.31 1.60 1.85 2.33 3.12 4.02 2.23 2.30 4.40 7.16 5.97 1.27 0.05 0.01 0.00 0.00 0.00 0.00 0.00 0.00 0.00 0.02 0.08 0.07 0.04 0.07 0.02 0.00 0.01 0.01 0.08 0.21 0.27 0.22 0.16 0.10
1.65 1.72 1.49 1.07 0.97 0.90 0.78 0.87 0.94 0.80 0.91 1.13 1.41 2.07 2.58 2.86 2.58 2.33 4.76 6.53 6.39 2.09 0.31 0.01 0.00 0.00 0.00 0.00 0.00 0.00 0.00 0.01 0.00 0.00 0.05 0.09 0.06 0.00 0.00 0.00 0.03 0.03 0.11 0.23 0.30 0.19 0.12
1.15 1.48 1.68 1.53 1.19 0.99 0.84 0.82 0.96 1.19 1.10 1.19 1.86 2.46 2.78 3.33 3.49 3.23 5.57 8.56 4.62 0.61 0.03 0.02 0.06 0.04 0.01 0.00 0.00 0.00 0.00 0.01 0.00 0.00 0.03 0.05 0.03 0.00 0.00 0.00 0.04 0.18 0.17 0.10 0.47 0.46 0.49
1.12 1.19 1.49 1.54 1.70 1.43 1.13 0.83 0.94 1.26 1.69 2.03 2.78 3.44 2.66 2.16 4.00 5.90 7.57 5.83 1.84 0.16 0.01 0.05 0.24 0.22 0.02 0.01 0.02 0.01 0.02 0.03 0.04 0.02 0.00 0.06 0.13 0.02 0.00 0.01 0.01 0.10 0.24 0.67 1.01 0.87 0.41
1.52 1.17 1.22 1.45 1.50 1.84 1.82 1.46 1.11 1.31 1.75 2.61 3.69 4.67 2.59 1.82 5.64 9.76 9.17 4.91 1.25 0.10 0.04 0.13 0.18 0.12 0.04 0.02 0.03 0.06 0.10 0.16 0.11 0.09 0.05 0.05 0.11 0.08 0.05 0.03 0.05 0.11 0.33 0.62 0.81 0.50 0.56
1.92 1.78 1.52 1.69 1.30 1.57 1.90 2.34 1.77 1.66 2.31 3.79 5.22 4.60 2.30 2.99 7.46 8.73 5.91 2.55 0.67 0.11 0.11 0.21 0.16 0.10 0.05 0.02 0.02 0.03 0.05 0.12 0.05 0.07 0.17 0.22 0.28 0.13 0.02 0.00 0.02 0.09 0.17 0.49 1.14 0.98 0.84
1.87 1.96 1.87 2.37 1.83 1.66 1.58 2.03 2.74 2.36 3.12 4.34 5.64 3.75 3.08 4.37 6.01 4.96 3.36 1.57 0.41 0.15 0.23 0.44 0.24 0.11 0.07 0.07 0.10 0.05 0.08 0.11 0.07 0.10 0.23 0.33 0.65 0.57 0.30 0.23 0.13 0.12 0.18 0.35 0.64 0.97 0.88
2.05 1.55 1.76 2.23 2.22 1.92 1.89 1.87 2.33 3.27 3.68 4.86 5.93 4.97 5.25 6.58 3.96 2.47 2.42 1.56 0.84 0.32 0.34 0.46 0.30 0.14 0.15 0.29 0.22 0.11 0.14 0.14 0.15 0.21 0.36 0.50 0.49 0.54 0.49 0.38 0.44 0.35 0.22 0.33 0.97 1.52 0.95
2.56 2.07 1.71 1.96 2.14 2.13 2.18 2.27 2.25 2.86 4.14 6.40 7.85 4.51 2.71 4.30 3.71 2.11 1.48 1.16 0.69 0.68 0.66 0.46 0.85 0.56 0.40 0.50 0.51 0.36 0.28 0.23 0.24 0.33 0.53 0.87 0.86 0.60 0.39 0.29 0.34 0.42 0.32 0.26 0.49 0.61 0.98
2.67 2.24 1.88 1.76 1.75 2.40 2.59 2.40 2.35 2.84 4.80 7.79 7.40 3.15 1.64 0.96 1.22 1.63 1.94 1.47 0.75 0.51 0.61 0.72 0.70 0.30 0.30 0.43 0.38 0.46 0.47 0.48 0.44 0.40 0.61 0.97 1.02 0.69 0.43 0.40 0.34 0.25 0.11 0.25 0.36 0.39 0.53
2.35 1.96 1.73 1.60 1.58 1.82 2.53 2.55 2.41 3.04 5.69 9.22 6.06 2.11 1.77 1.59 0.88 1.71 1.75 1.06 0.86 0.64 0.56 0.39 0.40 0.39 0.38 0.37 0.36 0.36 0.47 0.46 0.49 0.53 0.75 0.87 1.05 0.93 0.63 0.33 0.70 0.63 0.09 0.12 0.20 0.36 0.59
2.10 1.85 1.76 1.58 1.56 1.35 1.83 2.35 2.36 2.91 4.52 5.63 3.94 2.26 2.72 2.11 1.35 1.06 0.92 0.65 0.45 0.58 0.64 0.45 0.50 0.80 0.40 0.25 0.45 0.67 0.74 0.59 0.53 0.51 0.62 0.93 1.02 1.49 1.07 0.72 1.58 0.47 0.17 0.27 0.29 0.45 0.54
2.17 2.43 1.96 1.91 1.94 1.39 1.36 1.85 1.92 2.46 3.37 3.45 3.18 2.50 3.04 2.35 0.85 0.81 0.73 0.84 0.80 0.79 0.84 0.56 0.39 0.45 0.53 0.81 1.56 1.89 1.68 1.71 1.14 0.70 0.61 0.61 1.02 1.81 1.66 1.30 0.60 0.16 0.28 0.53 0.62 0.62 0.44
1.72 1.98 2.21 2.02 2.05 1.88 1.43 1.59 1.77 2.06 3.02 2.86 2.64 2.50 3.44 3.06 1.37 0.45 0.68 0.77 1.20 1.32 1.53 1.06 0.82 0.67 0.93 1.69 2.27 2.04 1.77 1.38 1.10 0.94 0.68 0.94 1.05 1.64 1.56 1.56 0.97 0.75 0.26 0.21 0.62 0.73 0.31
1.59 1.87 2.40 2.18 1.67 1.97 1.74 1.54 1.68 1.72 2.23 2.63 2.34 2.11 3.87 4.18 1.42 0.75 0.85 1.02 0.98 1.24 1.74 1.37 1.41 1.46 1.47 1.94 2.40 1.98 1.15 0.55 0.92 1.17 0.86 1.11 1.65 1.84 1.39 1.34 0.80 0.47 0.26 0.36 0.78 0.76 0.25
1.56 1.64 1.76 2.06 1.86 1.64 1.60 1.44 1.59 1.58 1.73 2.40 2.06 1.76 3.15 3.57 1.67 1.13 0.72 0.84 0.94 1.11 1.48 1.66 2.10 2.24 2.29 2.03 1.52 1.30 1.24 0.72 0.85 1.21 0.74 0.92 1.12 1.39 1.67 2.07 1.21 0.12 0.30 0.65 0.83 0.46 0.31
1.52 1.46 1.41 1.39 1.93 1.68 1.50 1.51 1.73 1.88 1.87 2.27 2.27 1.64 2.29 3.57 2.34 1.24 0.77 0.59 0.56 0.60 0.90 1.12 1.64 1.75 1.94 1.86 1.24 0.89 0.76 0.64 0.75 0.96 0.89 1.46 1.22 1.31 1.06 1.04 0.57 0.30 0.43 0.49 0.41 0.42 0.44

GFSGBSN_prec_precacc_186.txt.gz
Total_Precipitation_Accumulation
1.11 1.09 1.21 1.21 1.20 0.95 0.67 0.54 0.43 0.32 0.23 0.15 0.11 0.08 0.06 0.05 0.04 0.04 0.03 0.03 0.02 0.02 0.02 0.01 0.01 0.02 0.00 0.00 0.00 0.00 0.00 0.00 0.00 0.00 0.00 0.00 0.00 0.00 0.00 0.00 0.00 0.00 0.00 0.00 0.00 0.00 0.03
1.86 1.62 1.56 1.70 1.78 1.68 1.31 0.94 0.69 0.49 0.38 0.37 0.32 0.27 0.21 0.16 0.12 0.08 0.05 0.03 0.02 0.03 0.02 0.02 0.01 0.02 0.00 0.00 0.00 0.00 0.00 0.00 0.00 0.00 0.00 0.00 0.00 0.00 0.00 0.00 0.00 0.00 0.00 0.00 0.00 0.00 0.01
2.24 2.10 1.92 1.79 1.98 2.27 2.52 2.12 1.55 1.29 1.21 1.07 0.78 0.60 0.43 0.29 0.19 0.14 0.08 0.04 0.03 0.04 0.03 0.02 0.02 0.02 0.00 0.00 0.00 0.00 0.00 0.00 0.00 0.00 0.00 0.00 0.00 0.00 0.00 0.00 0.00 0.00 0.00 0.00 0.00 0.00 0.02
1.72 2.03 2.13 2.05 1.86 2.07 2.32 2.72 2.62 2.23 2.00 1.77 1.38 0.94 0.63 0.41 0.29 0.22 0.17 0.11 0.09 0.07 0.05 0.04 0.02 0.02 0.00 0.00 0.00 0.00 0.00 0.00 0.00 0.00 0.00 0.00 0.00 0.00 0.00 0.00 0.00 0.00 0.00 0.01 0.01 0.00 0.01
0.97 1.15 1.48 1.74 1.84 1.75 1.97 2.36 2.69 2.61 2.11 1.80 1.51 1.17 0.84 0.56 0.37 0.29 0.22 0.18 0.16 0.14 0.08 0.04 0.02 0.01 0.00 0.00 0.00 0.00 0.00 0.00 0.00 0.00 0.00 0.00 0.00 0.00 0.00 0.00 0.00 0.00 0.00 0.00 0.01 0.01 0.01
0.97 0.95 1.02 1.11 1.20 1.25 1.24 1.52 2.02 2.49 2.65 2.19 1.77 1.39 1.07 0.77 0.55 0.43 0.40 0.30 0.21 0.11 0.05 0.02 0.04 0.01 0.00 0.00 0.00 0.00 0.00 0.00 0.00 0.00 0.00 0.00 0.00 0.00 0.00 0.00 0.01 0.00 0.00 0.00 0.00 0.00 0.00
1.08 0.98 0.96 0.88 0.84 0.86 0.95 1.00 1.07 1.55 2.10 2.56 2.49 2.06 1.57 1.25 0.96 0.80 0.69 0.55 0.25 0.17 0.10 0.02 0.01 0.00 0.00 0.00 0.00 0.00 0.00 0.00 0.00 0.01 0.00 0.00 0.00 0.00 0.00 0.00 0.00 0.00 0.00 0.00 0.00 0.00 0.00
1.12 0.93 0.94 0.97 0.91 0.81 0.76 0.91 0.94 0.95 1.36 1.88 2.45 2.72 2.60 1.99 1.51 1.12 1.03 0.64 0.14 0.12 0.09 0.02 0.02 0.02 0.00 0.00 0.01 0.00 0.00 0.00 0.01 0.05 0.03 0.01 0.01 0.00 0.00 0.00 0.00 0.00 0.00 0.00 0.00 0.00 0.00
1.14 0.94 0.84 0.86 0.88 0.94 0.95 0.99 0.96 0.91 0.87 1.30 1.97 2.75 3.52 3.92 3.22 2.65 1.56 0.57 0.08 0.02 0.11 0.01 0.00 0.00 0.00 0.02 0.04 0.00 0.00 0.00 0.01 0.04 0.09 0.04 0.01 0.00 0.01 0.03 0.02 0.01 0.00 0.00 0.00 0.00 0.00
1.45 1.26 1.17 1.06 0.96 0.93 1.04 1.00 0.90 0.92 0.92 0.93 1.38 2.33 3.72 5.50 6.98 3.51 2.12 0.55 0.46 0.21 0.82 0.13 0.00 0.00 0.00 0.00 0.01 0.00 0.00 0.00 0.01 0.03 0.08 0.14 0.02 0.02 0.02 0.02 0.01 0.04 0.00 0.01 0.01 0.02 0.05
1.69 1.57 1.51 1.40 1.36 1.33 1.18 1.08 1.13 1.06 1.06 1.04 1.19 1.62 3.10 4.97 4.99 3.05 1.26 0.49 0.76 1.40 2.56 0.15 0.00 0.00 0.00 0.00 0.00 0.00 0.00 0.00 0.02 0.02 0.11 0.10 0.04 0.06 0.05 0.02 0.02 0.04 0.01 0.03 0.02 0.02 0.05
1.51 1.39 1.37 1.45 1.21 1.18 1.34 1.28 1.11 1.08 1.17 1.38 1.41 1.52 2.47 5.06 4.90 2.17 1.02 1.98 3.83 5.74 3.75 0.07 0.00 0.00 0.00 0.00 0.00 0.00 0.00 0.00 0.01 0.17 0.13 0.04 0.06 0.04 0.03 0.01 0.04 0.04 0.05 0.02 0.01 0.06 0.20
1.83 1.64 1.37 1.17 1.15 1.03 1.07 1.18 1.13 1.17 1.24 1.31 1.62 1.87 2.37 3.13 4.07 2.30 2.48 4.86 8.15 7.00 1.64 0.06 0.01 0.00 0.00 0.00 0.00 0.00 0.00 0.00 0.02 0.08 0.07 0.04 0.07 0.02 0.00 0.01 0.01 0.08 0.21 0.27 0.22 0.16 0.10
1.65 1.72 1.50 1.07 0.98 0.91 0.78 0.87 0.94 0.80 0.91 1.14 1.44 2.12 2.61 2.87 2.59 2.44 5.11 7.26 7.29 2.58 0.52 0.02 0.00 0.00 0.00 0.00 0.00 0.00 0.00 0.01 0.00 0.00 0.05 0.09 0.06 0.00 0.00 0.00 0.03 0.03 0.11 0.23 0.30 0.19 0.12
1.15 1.49 1.69 1.54 1.20 1.00 0.84 0.82 0.96 1.20 1.11 1.21 1.92 2.53 2.82 3.33 3.50 3.34 6.18 9.42 5.37 0.88 0.07 0.02 0.06 0.05 0.01 0.00 0.00 0.00 0.00 0.01 0.00 0.00 0.03 0.05 0.03 0.00 0.00 0.00 0.04 0.18 0.17 0.10 0.47 0.46 0.49
1.12 1.19 1.50 1.54 1.70 1.44 1.13 0.84 0.95 1.26 1.69 2.07 2.89 3.60 2.72 2.16 4.01 6.11 8.36 6.48 2.25 0.34 0.02 0.05 0.25 0.22 0.02 0.01 0.02 0.01 0.02 0.03 0.04 0.02 0.00 0.06 0.13 0.02 0.00 0.01 0.01 0.10 0.24 0.67 1.01 0.87 0.41
1.52 1.17 1.23 1.46 1.51 1.85 1.83 1.46 1.12 1.32 1.76 2.67 3.89 4.94 2.68 1.82 5.70 10.12 9.85 5.39 1.44 0.14 0.04 0.13 0.22 0.12 0.04 0.02 0.03 0.06 0.10 0.16 0.11 0.09 0.05 0.05 0.11 0.08 0.05 0.03 0.05 0.11 0.33 0.62 0.81 0.50 0.56
1.92 1.78 1.53 1.69 1.31 1.58 1.90 2.34 1.77 1.67 2.34 3.92 5.54 4.86 2.34 2.99 7.53 9.10 6.38 2.82 0.77 0.12 0.13 0.25 0.20 0.11 0.05 0.02 0.02 0.03 0.05 0.12 0.05 0.07 0.17 0.22 0.28 0.13 0.02 0.00 0.02 0.09 0.17 0.49 1.14 0.98 0.84
1.87 1.96 1.88 2.37 1.84 1.67 1.58 2.04 2.75 2.37 3.15 4.47 5.86 3.90 3.12 4.38 6.05 5.13 3.55 1.71 0.47 0.15 0.26 0.59 0.29 0.12 0.07 0.07 0.10 0.05 0.08 0.11 0.07 0.10 0.23 0.33 0.65 0.57 0.30 0.23 0.13 0.12 0.18 0.35 0.64 0.97 0.88
2.05 1.55 1.77 2.23 2.23 1.92 1.90 1.89 2.34 3.30 3.74 4.92 6.04 5.15 5.37 6.64 3.97 2.52 2.54 1.66 0.95 0.34 0.35 0.54 0.33 0.14 0.16 0.33 0.27 0.11 0.14 0.14 0.15 0.21 0.36 0.50 0.49 0.55 0.49 0.38 0.44 0.35 0.22 0.33 0.97 1.52 0.95
2.56 2.07 1.71 1.96 2.15 2.13 2.19 2.29 2.28 2.91 4.26 6.47 7.92 4.57 2.78 4.38 3.72 2.11 1.51 1.23 0.79 0.76 0.72 0.52 0.89 0.57 0.41 0.54 0.59 0.45 0.28 0.23 0.24 0.33 0.53 0.87 0.86 0.60 0.39 0.29 0.34 0.42 0.32 0.26 0.49 0.61 0.98
2.67 2.25 1.88 1.77 1.76 2.40 2.60 2.41 2.38 2.94 4.98 7.91 7.46 3.15 1.64 0.96 1.22 1.63 1.96 1.49 0.78 0.62 0.73 0.83 0.76 0.32 0.31 0.43 0.39 0.50 0.48 0.48 0.44 0.40 0.62 0.98 1.04 0.69 0.43 0.40 0.34 0.25 0.11 0.25 0.36 0.39 0.53
2.35 1.96 1.74 1.62 1.58 1.82 2.54 2.57 2.44 3.16 5.97 9.44 6.08 2.11 1.77 1.59 0.88 1.72 1.76 1.07 0.87 0.67 0.71 0.46 0.42 0.39 0.38 0.37 0.36 0.36 0.49 0.50 0.52 0.56 0.77 0.88 1.10 0.96 0.63 0.33 0.71 0.66 0.09 0.12 0.20 0.36 0.59
2.10 1.86 1.78 1.61 1.57 1.35 1.85 2.43 2.43 3.03 4.73 5.70 3.96 2.26 2.72 2.11 1.35 1.06 0.92 0.65 0.45 0.58 0.68 0.52 0.53 0.82 0.41 0.26 0.48 0.73 0.80 0.67 0.68 0.65 0.73 1.07 1.07 1.63 1.17 0.74 1.67 0.56 0.17 0.27 0.29 0.45 0.54
2.17 2.44 1.97 1.92 1.94 1.40 1.38 2.02 2.15 2.63 3.47 3.51 3.20 2.50 3.04 2.35 0.85 0.82 0.73 0.84 0.80 0.80 0.86 0.58 0.44 0.49 0.54 0.87 1.67 2.06 1.80 1.80 1.25 0.84 0.82 0.86 1.25 2.16 1.96 1.47 0.68 0.17 0.28 0.53 0.62 0.62 0.44
1.72 1.99 2.22 2.03 2.06 1.92 1.47 1.73 2.09 2.30 3.13 2.91 2.67 2.51 3.44 3.06 1.37 0.46 0.69 0.77 1.20 1.34 1.56 1.07 0.82 0.68 0.96 1.79 2.45 2.32 1.91 1.49 1.16 0.98 0.73 1.12 1.34 1.94 1.82 1.74 1.09 0.75 0.26 0.21 0.62 0.73 0.31
1.59 1.87 2.40 2.18 1.68 2.03 1.81 1.59 1.95 1.91 2.39 2.67 2.35 2.11 3.87 4.18 1.42 0.75 0.86 1.03 0.99 1.24 1.78 1.39 1.41 1.47 1.49 2.03 2.68 2.25 1.22 0.57 0.97 1.23 0.97 1.24 1.92 2.22 1.62 1.46 0.84 0.47 0.26 0.36 0.79 0.77 0.25
1.56 1.64 1.76 2.06 1.86 1.68 1.68 1.48 1.63 1.64 1.78 2.42 2.07 1.76 3.15 3.57 1.67 1.13 0.73 0.86 0.95 1.12 1.53 1.72 2.13 2.27 2.39 2.28 1.80 1.55 1.34 0.73 0.86 1.23 0.86 1.10 1.26 1.63 1.94 2.21 1.24 0.12 0.30 0.65 0.83 0.46 0.31
1.52 1.46 1.41 1.40 1.94 1.70 1.57 1.55 1.78 1.91 1.91 2.28 2.27 1.64 2.29 3.57 2.34 1.24 0.77 0.59 0.56 0.60 0.91 1.15 1.76 1.90 2.12 2.18 1.53 1.01 0.81 0.65 0.75 0.96 0.89 1.54 1.36 1.43 1.15 1.11 0.57 0.30 0.43 0.49 0.41 0.42 0.44